GFSFLT1_925_thetae_000.txt.gz
Theta_e
325 322 321 323 326 329 329 322 320 322 322 320 317 316 315 314 313 313 313 313 313 314 314 315 316 316 315 314 315 314 313 311
319 318 318 322 327 327 326 323 318 317 315 314 314 314 313 313 313 312 313 312 312 312 312 313 313 314 314 315 315 315 315 313
318 318 318 320 322 322 318 315 314 313 313 313 312 312 312 312 312 311 311 308 308 308 309 310 310 311 311 313 314 314 315 314
318 318 317 317 316 316 315 314 313 312 312 311 312 312 311 311 310 309 307 307 306 306 307 308 308 308 308 309 310 311 312 313
316 316 316 315 316 314 313 312 312 310 310 310 310 310 309 309 308 307 306 305 305 305 305 306 306 306 306 306 306 307 308 310
317 315 314 314 314 313 313 312 311 310 309 309 309 309 308 308 307 305 304 303 304 304 304 304 305 305 305 305 306 306 307 308
315 314 314 314 314 313 312 311 310 310 309 307 308 309 308 307 305 304 303 303 303 303 303 303 304 303 303 303 303 303 303 303
316 315 315 314 314 312 310 310 310 309 309 307 307 307 306 305 304 303 302 302 301 302 302 302 302 302 301 301 301 301 299 299
315 314 314 314 313 312 311 310 310 308 307 306 305 306 306 304 303 301 301 301 301 302 301 301 301 301 301 301 299 297 297 297
314 313 313 313 313 311 311 310 309 308 307 307 306 306 304 302 301 300 300 300 300 300 300 299 297 297 297 296 296 295 295 294
315 314 312 312 312 311 311 311 310 309 308 306 305 303 302 300 299 299 299 299 300 298 297 297 296 296 296 295 295 294 294 293
315 313 312 312 312 311 310 310 309 307 305 304 302 301 299 299 299 298 298 298 297 297 296 296 296 295 294 293 293 293 293 293
314 313 312 312 311 310 310 308 305 304 302 301 301 300 299 298 298 298 297 297 297 296 296 295 294 294 293 292 292 292 291 291
313 312 312 311 309 307 305 304 303 301 300 300 299 299 299 298 297 297 296 296 295 295 295 294 294 293 293 291 290 290 290 290
313 312 310 307 304 304 304 303 301 300 300 299 299 298 298 296 296 294 294 293 293 293 292 292 291 290 289 289 289 289 289 288
311 310 307 305 304 304 304 302 300 299 299 297 296 295 294 294 293 292 291 290 289 288 288 288 288 288 287 287 287 287 288 287
308 304 303 303 303 304 303 300 299 299 298 295 294 294 293 292 291 290 289 288 288 288 287 287 287 287 286 285 285 286 286 286
304 303 302 302 303 304 301 299 299 298 296 294 294 293 291 290 289 288 288 288 287 287 287 287 287 286 284 283 282 283 284 284
302 302 301 302 303 302 299 298 298 296 295 294 294 292 290 289 288 288 287 287 287 287 286 286 285 285 283 281 281 281 283 284

GFSFLT1_925_thetae_003.txt.gz
Theta_e
327 329 327 326 326 326 328 329 321 321 323 322 319 318 318 317 317 316 316 316 317 317 317 317 317 317 317 317 319 318 318 317
328 325 324 325 328 326 326 325 323 321 320 318 316 316 316 316 316 316 316 315 314 313 313 313 314 314 315 315 316 316 317 316
323 322 323 324 327 327 325 322 318 317 316 316 315 315 315 315 315 313 313 312 312 311 311 311 310 311 311 312 313 315 315 315
322 322 323 323 322 321 319 318 316 315 314 314 314 314 313 313 313 312 312 311 310 309 308 308 309 309 309 310 310 310 312 312
319 320 320 320 319 317 316 315 314 313 313 313 313 312 312 312 312 311 310 308 307 306 307 307 307 307 307 307 306 308 308 309
320 319 318 318 317 317 316 315 313 313 312 311 312 312 313 312 311 309 307 306 306 305 305 305 305 305 305 306 306 306 305 306
318 317 317 317 317 316 315 314 313 313 312 312 313 312 311 309 308 307 306 305 304 304 303 304 304 304 304 304 304 304 303 302
318 318 317 317 316 315 314 313 313 313 313 311 309 308 308 308 307 306 304 303 303 302 303 303 302 302 302 303 303 301 299 299
318 317 317 316 316 315 315 314 313 312 311 310 310 309 308 306 305 303 302 302 302 302 302 302 301 301 300 300 300 300 298 298
317 316 316 315 315 315 314 313 313 312 311 310 309 307 305 304 303 302 301 301 300 300 300 300 299 298 298 298 298 297 297 297
317 316 316 315 314 314 313 313 312 312 310 308 306 305 304 302 301 301 300 300 299 299 299 298 298 297 296 295 295 296 296 295
317 316 315 314 314 314 313 313 312 309 307 304 303 303 302 301 300 300 299 299 298 298 298 297 297 296 295 295 295 295 295 295
316 314 314 313 313 312 312 310 307 306 304 303 302 301 301 300 300 298 297 297 297 296 296 295 295 295 294 294 293 293 292 292
315 314 314 313 312 310 309 307 305 304 303 301 301 300 299 299 297 296 296 295 295 294 294 294 293 292 292 291 291 291 291 291
314 312 311 310 307 306 307 306 305 304 302 300 299 298 297 296 295 295 294 293 292 291 290 290 289 289 289 289 289 289 288 288
312 311 308 306 305 305 304 305 304 303 301 300 298 296 295 295 294 293 292 291 290 289 289 289 289 289 288 288 287 287 287 287
310 307 305 305 304 303 303 304 302 301 301 299 297 295 295 294 292 291 290 290 289 289 289 289 288 288 286 285 284 284 284 284
308 306 304 303 302 301 302 302 301 300 299 298 296 295 294 293 292 290 290 289 289 289 288 288 288 287 285 284 282 283 282 283
305 304 302 300 299 300 301 301 300 299 298 297 296 295 294 293 291 290 289 289 289 288 288 288 287 286 285 283 281 281 282 282

GFSFLT1_925_thetae_006.txt.gz
Theta_e
326 325 325 326 326 327 331 329 323 323 323 323 320 319 318 318 317 317 317 316 316 314 314 314 314 316 315 316 317 315 315 315
327 325 325 326 327 326 326 324 323 322 322 319 317 316 316 316 316 314 313 313 313 312 311 311 310 311 312 311 311 311 312 313
324 324 325 327 326 325 324 322 319 317 317 316 315 315 315 314 314 313 313 312 311 310 309 309 310 309 309 309 310 310 309 309
323 324 323 322 321 320 318 317 315 314 315 314 314 314 313 313 313 313 312 312 311 308 307 307 307 307 307 307 308 308 309 307
321 322 321 319 318 317 316 315 314 313 313 313 313 313 313 314 314 313 311 309 307 306 305 305 305 305 305 306 306 306 306 307
320 320 319 318 318 317 316 315 314 314 313 312 313 314 313 312 310 310 308 307 305 304 304 303 304 303 304 305 304 304 305 304
319 318 318 318 317 316 315 314 314 314 314 314 312 309 309 309 309 308 305 304 303 303 302 302 303 303 302 304 303 303 302 301
320 319 318 317 316 316 316 316 315 314 313 312 311 310 309 308 306 305 303 302 303 302 302 301 302 302 301 300 299 301 300 299
319 317 317 316 316 316 316 315 314 314 313 312 311 308 306 306 304 302 302 302 301 300 301 301 300 299 298 298 298 298 298 298
317 317 317 316 316 315 314 314 314 313 312 309 307 305 305 304 302 301 301 301 300 299 299 299 298 298 298 297 296 296 296 296
318 317 316 315 314 314 314 313 313 311 308 306 305 304 304 303 301 301 300 299 298 298 298 297 297 297 296 295 295 295 295 295
317 316 315 314 313 313 312 310 309 308 307 305 304 303 302 301 301 299 298 297 296 296 295 295 295 295 295 293 292 293 293 292
315 314 313 312 311 311 310 309 308 307 305 304 303 302 300 299 299 298 296 296 296 295 294 294 294 293 292 292 292 293 292 292
314 313 312 311 309 308 307 307 307 306 305 304 302 300 299 298 297 296 295 294 294 293 291 291 290 290 290 290 290 290 289 288
313 312 310 308 306 306 306 305 305 305 304 303 302 300 297 296 296 294 293 292 291 291 290 290 290 290 289 289 288 288 287 286
311 310 309 307 305 305 303 303 304 304 303 302 301 300 297 296 295 293 292 291 290 290 289 289 289 289 288 286 286 285 285 285
308 308 306 305 304 302 301 301 302 303 302 301 300 299 297 296 295 293 292 291 290 289 290 289 289 289 287 285 285 284 283 283
307 305 304 302 300 299 299 299 299 301 301 300 299 297 296 295 295 293 292 290 290 290 289 289 288 288 286 285 283 282 282 281
305 303 301 301 300 299 298 297 297 298 298 299 298 297 296 296 295 293 292 290 290 290 289 288 288 287 286 284 283 282 281 280

GFSFLT1_925_thetae_009.txt.gz
Theta_e
324 325 326 326 328 330 327 329 326 324 322 322 322 320 317 316 315 314 314 313 313 312 311 311 310 309 310 310 309 309 309 310
325 324 325 328 330 329 328 326 323 322 322 317 315 315 315 314 313 313 313 313 312 312 311 309 309 309 307 307 307 305 307 308
322 319 319 323 322 319 316 316 315 315 315 314 314 315 314 314 314 313 313 312 312 309 307 306 306 306 305 305 304 306 307 306
320 318 317 316 316 315 315 314 314 314 314 314 313 313 313 313 313 313 310 309 307 305 304 304 303 305 304 303 303 305 305 305
319 317 317 317 316 315 314 314 314 313 313 313 312 313 314 313 311 309 309 305 304 303 303 302 302 302 303 303 303 305 304 304
316 317 317 317 316 316 315 314 314 314 313 313 312 312 309 309 310 306 305 304 302 302 302 301 301 302 302 302 303 302 302 302
316 318 317 317 316 316 315 315 315 314 314 313 311 310 309 307 306 305 304 302 302 301 301 301 302 302 301 300 300 301 301 300
313 316 317 316 316 316 316 316 315 314 313 312 310 307 306 305 304 303 302 302 301 301 299 299 299 298 298 298 298 298 298 298
313 315 316 316 316 315 315 314 314 313 311 308 306 305 305 305 303 301 301 301 300 298 298 298 298 297 297 297 296 296 296 296
313 316 314 314 313 313 313 313 311 309 307 305 305 304 304 304 302 301 300 298 297 296 297 296 294 294 294 295 294 293 293 294
313 313 312 311 311 311 310 309 308 307 306 305 304 303 302 301 301 299 298 296 295 294 294 295 295 295 294 294 293 292 292 292
311 311 311 310 310 309 308 307 307 307 307 305 304 303 301 300 299 298 297 296 295 295 294 293 292 291 290 290 290 290 291 291
310 311 310 308 307 306 305 306 307 307 306 305 304 302 300 300 298 297 296 295 294 293 291 290 290 289 289 290 289 289 288 287
309 309 309 308 306 305 305 304 304 304 305 305 304 302 300 299 297 296 294 293 292 291 290 290 289 289 289 289 288 287 286 286
307 307 307 305 305 304 303 301 300 301 304 303 302 302 301 298 296 294 293 292 291 290 289 289 289 289 289 288 287 286 286 285
306 304 305 304 303 300 299 299 298 298 300 300 301 301 299 297 295 294 293 292 291 290 289 289 289 289 288 287 286 285 284 283
305 304 304 302 300 299 299 297 296 296 296 296 298 299 298 297 296 296 294 291 290 290 289 289 289 288 287 286 285 284 283 282
304 303 302 300 299 298 296 295 295 295 295 297 297 298 297 296 295 295 293 292 290 290 290 288 288 287 286 285 284 284 283 282
303 302 299 298 297 296 295 295 295 295 295 296 296 295 294 295 294 293 292 291 290 290 289 288 288 286 284 285 284 283 282 281

GFSFLT1_925_thetae_012.txt.gz
Theta_e
324 325 331 331 328 326 324 326 324 325 323 322 320 317 316 314 314 314 313 312 312 312 311 310 309 309 308 307 306 306 304 304
321 323 327 326 325 325 325 327 326 322 317 318 315 315 314 313 312 312 313 313 311 311 308 307 306 306 305 304 304 303 303 303
317 319 321 320 321 324 319 317 318 315 316 315 315 314 313 313 313 312 310 307 306 306 304 303 303 303 303 303 303 304 304 304
315 315 315 315 315 314 313 314 314 314 313 313 313 313 313 313 312 310 308 306 304 303 302 302 301 301 302 302 302 302 304 304
315 314 314 314 314 314 314 314 314 314 313 314 314 313 313 310 309 308 305 304 302 302 301 301 300 301 302 302 302 302 302 302
314 315 315 315 315 314 314 314 313 313 313 313 313 312 309 309 307 305 304 302 301 301 300 300 300 300 300 299 299 300 300 300
314 315 316 315 315 315 314 315 313 313 313 313 311 309 308 306 304 303 302 301 301 301 300 298 297 297 297 297 297 297 297 296
313 315 315 315 314 315 315 313 312 312 311 308 306 305 305 304 303 302 302 301 300 299 296 295 295 294 294 294 294 294 293 293
312 312 313 313 312 312 312 310 307 307 305 305 306 305 304 304 303 302 301 300 298 295 293 293 293 293 293 293 292 292 292 292
311 310 311 311 311 310 310 309 309 308 308 307 305 304 303 302 302 301 300 299 297 294 293 293 293 293 292 292 291 290 290 291
309 309 310 309 309 307 306 306 307 307 306 305 305 304 303 302 301 300 299 298 296 294 293 293 292 290 290 289 289 289 290 291
308 308 307 307 306 305 305 305 305 306 305 305 305 304 303 301 300 299 298 296 295 293 294 292 290 290 289 289 289 289 289 288
308 308 307 306 305 304 303 302 301 302 302 304 304 304 302 300 298 298 296 295 294 292 291 290 289 289 289 289 289 288 287 286
305 305 305 304 304 302 299 299 298 297 296 297 299 298 298 301 298 295 294 293 292 293 291 289 289 289 289 288 288 286 286 286
304 303 304 303 301 299 299 297 296 295 295 295 297 298 299 299 297 296 295 294 293 294 290 289 289 289 289 287 287 286 285 284
304 303 303 302 299 298 296 296 295 295 295 295 296 296 296 297 297 297 295 294 294 291 289 289 289 289 288 287 286 285 284 283
303 303 302 299 297 296 295 295 295 294 294 295 295 296 296 295 296 295 295 294 290 292 290 289 288 287 286 286 285 284 284 283
302 301 299 297 296 295 295 294 294 294 295 295 295 295 294 294 294 294 294 292 292 290 289 288 287 286 285 284 284 284 283 282
300 298 297 296 295 295 294 294 294 293 295 294 294 294 294 294 294 293 293 291 291 288 288 286 285 284 284 284 283 282 281 280

GFSFLT1_925_thetae_015.txt.gz
Theta_e
326 328 328 329 328 327 325 326 325 325 324 320 316 316 314 314 313 312 312 312 312 311 310 308 307 306 305 304 303 303 302 303
319 324 326 326 326 325 326 326 324 320 316 315 314 313 313 312 312 312 312 309 308 307 306 304 303 302 302 301 301 301 301 302
317 322 325 326 324 321 319 322 318 316 318 318 314 313 312 313 312 310 308 307 306 304 303 302 302 301 300 301 302 302 302 302
317 317 319 321 315 314 314 314 314 313 313 313 313 313 313 313 310 308 305 303 303 303 302 301 300 300 300 300 300 300 300 300
313 313 313 313 313 313 313 313 313 313 313 313 313 313 313 311 308 303 303 302 301 301 300 300 300 299 299 298 298 298 299 299
311 312 313 313 314 313 313 313 313 313 312 312 312 311 308 307 304 303 302 301 301 303 304 301 299 297 296 295 295 296 296 296
312 313 313 312 312 312 312 313 312 312 312 311 310 307 305 304 303 304 304 304 305 303 301 297 295 293 292 293 293 293 293 292
311 312 312 312 313 312 312 312 310 308 307 306 306 306 306 306 305 304 304 303 303 301 297 294 293 292 292 292 292 291 291 291
310 310 310 310 310 310 309 309 308 308 308 306 304 304 303 303 303 302 302 302 301 299 295 293 292 292 291 291 291 290 289 290
308 309 309 309 309 308 307 307 307 306 305 305 304 304 303 303 302 302 301 300 298 295 294 293 293 293 291 291 290 290 290 290
307 308 308 306 306 305 305 305 305 305 304 304 305 304 303 303 302 301 300 299 297 295 294 294 293 291 290 289 289 289 289 289
306 307 306 305 305 304 304 302 302 303 301 301 302 302 300 298 300 299 297 296 295 295 293 293 292 290 289 289 289 288 288 288
306 306 305 304 303 303 299 299 298 296 296 295 295 295 296 296 299 297 297 297 296 294 292 293 292 289 289 289 288 288 288 286
304 305 304 303 302 299 298 297 296 295 295 295 294 294 294 295 295 295 295 296 295 293 294 293 290 289 289 289 288 287 286 285
303 302 302 302 299 298 297 295 295 295 294 294 294 294 295 294 294 294 295 295 294 294 294 292 289 290 289 288 287 286 285 285
303 301 301 300 298 296 295 295 295 294 294 294 294 295 295 294 293 294 295 294 294 294 291 290 291 289 288 287 286 285 284 284
303 302 301 299 297 295 295 294 294 294 294 294 294 294 294 293 293 294 294 295 294 291 292 290 287 287 286 285 285 285 284 283
302 301 299 297 296 295 294 294 294 294 294 294 294 294 293 293 293 294 293 293 292 291 288 287 286 285 284 284 284 283 281 280
300 298 296 296 295 294 294 294 293 293 293 294 294 293 293 292 292 292 292 291 291 288 287 286 285 283 282 282 281 280 279 278

GFSFLT1_925_thetae_018.txt.gz
Theta_e
323 323 325 327 327 327 326 325 325 325 325 321 315 314 313 314 314 312 312 314 311 310 307 305 304 302 301 301 300 300 300 302
322 323 324 325 326 325 325 326 325 322 313 313 314 315 315 313 312 311 311 311 308 305 304 302 301 301 300 300 299 299 299 300
319 321 323 325 325 326 325 324 315 315 315 318 318 313 312 312 310 308 306 305 304 303 302 301 301 302 303 301 299 299 300 300
318 319 317 316 317 322 322 319 316 316 315 313 312 312 312 312 307 305 303 303 302 302 302 304 305 301 300 298 297 297 298 298
313 312 311 312 311 312 312 312 312 312 312 312 312 312 311 308 305 303 302 302 303 304 305 304 301 299 298 296 295 294 295 296
311 310 311 311 311 311 312 312 312 312 312 312 311 310 307 305 304 304 304 304 303 303 303 302 299 297 294 293 292 292 292 292
310 311 311 311 311 312 313 313 312 311 310 308 307 305 305 304 305 304 303 303 302 302 301 297 294 293 292 291 291 290 291 290
309 310 310 311 312 312 311 310 308 307 307 306 304 302 302 302 303 303 302 302 301 301 299 295 293 292 291 291 290 290 289 289
309 309 309 308 308 308 308 308 308 306 304 303 303 303 303 303 303 302 302 301 301 300 297 294 294 293 292 292 291 290 289 289
307 307 308 308 308 307 307 306 305 304 303 304 304 304 303 302 301 300 301 300 299 298 295 295 294 293 293 292 291 289 289 289
306 307 307 306 305 305 305 304 304 304 303 301 300 301 297 295 295 296 298 298 297 297 296 295 293 293 292 291 290 289 288 288
305 306 305 304 304 304 303 301 301 300 297 296 295 294 293 292 293 293 293 294 296 297 296 294 293 293 292 290 289 288 288 288
305 305 305 304 303 302 300 299 297 296 295 295 294 293 293 294 293 292 293 293 294 295 295 293 292 293 291 289 289 288 288 287
304 304 304 303 302 299 298 297 296 295 295 294 294 294 294 293 293 292 292 293 294 293 292 293 293 291 289 289 288 288 286 285
301 301 302 302 300 298 297 296 295 295 294 294 294 294 294 294 293 292 292 293 294 293 294 294 290 290 290 288 287 286 285 285
301 300 300 300 298 297 296 295 295 294 294 294 294 294 294 294 293 292 292 293 294 293 293 291 291 290 288 286 286 285 284 284
301 301 301 300 297 296 295 294 294 294 294 293 293 294 294 293 292 292 292 293 293 292 291 290 287 287 285 285 284 284 283 281
301 300 300 297 297 295 294 294 294 293 293 293 293 294 293 292 292 292 292 292 291 291 289 286 286 285 283 282 282 281 280 279
300 300 297 296 295 294 294 293 293 293 293 293 294 293 292 292 292 291 290 291 291 290 286 285 284 283 281 281 281 280 278 277

GFSFLT1_925_thetae_021.txt.gz
Theta_e
321 324 324 325 326 325 326 324 324 324 323 324 319 315 313 312 314 312 311 311 309 308 306 304 303 302 301 302 302 302 302 302
323 324 325 325 324 324 325 326 325 325 321 317 313 312 313 313 310 310 309 307 305 305 303 302 302 304 303 301 301 301 300 300
322 324 325 326 326 325 325 325 324 320 314 314 315 314 312 310 308 308 306 305 304 303 303 304 304 302 300 299 298 299 299 299
323 322 323 322 323 324 323 317 314 313 314 315 313 311 311 309 306 305 304 304 304 303 302 303 301 299 300 298 298 297 296 296
320 316 315 316 320 321 316 314 314 312 311 311 311 311 311 307 306 305 304 304 303 302 302 302 300 298 296 296 295 294 294 293
315 312 311 309 311 311 311 311 311 311 311 310 309 307 306 305 304 304 303 302 301 301 301 301 299 296 293 291 292 293 293 292
312 310 309 309 310 311 311 310 308 308 308 307 304 301 302 303 303 303 302 302 301 301 301 300 297 293 292 292 290 290 292 292
313 312 312 310 310 308 308 308 307 307 304 303 302 302 302 303 303 303 303 303 302 301 300 299 294 294 295 292 293 293 292 291
313 312 311 310 308 308 308 307 306 304 303 302 302 303 303 303 302 301 298 299 300 299 299 298 294 297 294 293 294 294 293 292
313 310 309 308 307 307 306 305 304 303 302 302 302 302 300 296 294 294 295 293 293 296 298 296 296 294 294 294 294 294 293 291
311 309 308 307 306 305 304 304 303 302 303 299 296 294 294 293 292 292 292 293 292 293 296 296 296 294 294 293 293 292 291 290
311 309 306 305 305 305 304 303 302 301 297 295 294 294 293 293 293 293 293 292 293 294 295 295 294 293 293 293 292 290 289 289
309 307 305 304 304 303 301 300 299 297 296 295 294 294 293 293 293 293 292 292 292 293 294 294 293 292 293 291 289 289 289 288
308 306 305 304 302 299 298 298 299 295 295 294 294 294 293 294 294 293 292 292 293 294 293 293 294 293 290 289 289 288 286 286
308 306 305 302 301 299 298 299 296 295 294 294 294 294 294 294 294 293 292 292 293 294 294 293 291 289 289 288 288 286 286 286
306 304 303 302 301 299 299 296 295 294 294 294 293 293 294 294 293 292 292 292 293 292 292 291 291 288 286 287 287 286 285 284
305 303 302 301 301 299 296 295 294 294 293 293 293 292 294 293 293 292 292 292 292 291 290 289 287 286 285 285 284 283 282 281
304 303 302 302 300 298 295 294 294 293 293 293 293 293 293 293 292 292 292 291 290 291 290 287 286 284 283 282 281 282 280 280
303 302 301 298 296 295 293 293 293 293 293 292 292 293 293 292 292 291 290 290 290 290 287 286 284 283 282 281 280 280 279 279

GFSFLT1_925_thetae_024.txt.gz
Theta_e
327 328 329 330 331 330 329 328 324 324 321 318 321 318 315 314 313 312 311 311 311 310 309 308 307 308 308 308 307 307 305 305
328 328 329 330 330 329 329 326 327 325 324 322 318 317 315 312 312 310 310 309 308 308 307 308 308 307 306 305 304 303 302 302
328 329 329 328 328 328 328 328 328 326 322 319 318 318 316 312 310 309 308 308 307 307 306 306 305 303 304 304 303 302 301 300
330 330 330 329 329 329 329 328 326 319 319 319 318 316 313 312 311 310 308 307 306 305 304 303 302 301 301 302 301 300 299 298
330 330 329 330 329 328 323 320 318 318 316 315 316 316 316 312 310 308 307 305 304 303 303 303 302 301 301 300 298 298 297 297
325 324 324 324 324 321 318 316 315 315 315 314 313 312 310 308 307 306 305 304 304 304 303 303 303 302 300 298 297 297 296 296
319 317 317 317 317 316 315 314 313 312 311 310 309 307 305 304 304 304 303 302 303 303 303 302 302 301 299 298 298 297 296 294
318 316 315 315 315 315 313 313 312 310 308 305 304 304 304 303 303 302 302 300 299 299 299 298 299 300 298 298 297 297 296 294
318 316 316 315 314 314 313 312 309 307 305 305 305 303 303 302 301 299 298 298 296 296 296 297 299 299 298 297 297 296 295 294
318 317 316 315 314 313 312 309 306 305 303 302 304 303 300 298 298 298 296 296 295 295 295 296 297 298 298 297 296 296 295 294
319 317 316 314 313 311 309 308 305 303 304 302 300 299 298 298 297 296 296 295 295 294 294 295 296 296 296 296 295 295 294 293
319 316 315 313 311 309 309 306 304 303 300 299 299 298 297 297 296 296 296 295 295 294 294 295 295 295 295 295 295 295 293 292
318 316 313 311 309 309 305 304 302 299 300 299 298 297 297 297 296 296 296 295 295 294 295 294 294 294 295 295 294 292 292 291
318 315 312 310 308 306 302 300 301 300 298 298 298 298 297 296 296 296 296 295 294 294 294 294 294 294 293 292 292 291 290 290
317 314 311 309 307 303 300 300 300 299 298 297 297 297 297 296 296 296 296 295 294 294 294 293 293 292 292 291 290 290 290 289
316 314 312 309 305 302 301 301 300 298 297 297 297 296 296 296 296 296 295 294 294 293 293 293 292 291 290 290 290 289 288 287
315 313 310 307 305 303 301 301 299 297 297 297 296 295 295 295 295 295 293 293 293 293 293 292 291 289 286 285 284 286 286 285
314 312 309 306 305 302 302 300 297 296 296 296 295 294 294 294 294 293 293 293 293 292 293 291 290 289 285 283 283 284 284 283
312 310 307 305 304 302 300 297 296 296 296 295 294 293 294 293 293 293 293 292 292 292 292 290 289 287 284 283 282 284 283 283

GFSFLT1_925_thetae_027.txt.gz
Theta_e
330 327 327 327 330 332 331 329 327 324 324 321 322 321 320 317 316 315 315 315 314 314 313 312 312 311 311 311 310 308 306 305
330 330 330 331 333 331 331 329 327 327 326 324 323 321 319 318 316 315 314 313 312 312 312 311 310 309 308 308 306 304 303 302
331 331 331 332 332 331 331 329 329 328 327 325 323 321 318 316 314 314 313 312 311 310 310 309 307 306 304 303 304 303 302 301
332 332 331 330 330 330 330 330 330 327 323 321 321 320 317 315 314 314 312 310 309 308 307 306 304 304 303 302 302 302 301 300
333 333 330 330 330 330 330 328 325 322 320 319 318 318 317 316 315 312 311 309 307 305 304 304 304 303 303 302 301 300 300 299
332 331 331 330 330 328 326 323 321 320 318 318 318 317 315 312 310 308 306 306 305 305 304 304 304 303 302 301 300 300 300 299
328 327 327 328 327 323 321 319 318 317 317 316 314 312 308 307 306 305 305 304 303 302 301 301 300 300 301 300 300 300 299 298
324 323 323 323 322 320 318 317 316 315 313 310 308 307 306 305 305 304 302 301 300 299 298 298 298 298 299 300 299 299 298 297
322 320 320 319 319 318 316 316 315 312 309 307 306 304 305 304 303 301 300 299 298 298 297 297 297 298 298 299 299 298 297 297
321 320 319 319 318 317 316 316 313 309 308 307 305 303 301 301 301 300 299 298 297 297 297 296 296 296 297 299 298 297 297 296
321 320 319 319 318 317 316 314 310 308 305 305 303 301 300 300 300 299 298 298 297 297 296 296 296 296 296 296 296 296 296 296
322 320 319 318 317 317 314 312 309 306 304 301 300 300 300 300 300 299 298 298 297 296 295 295 295 295 295 296 296 296 296 296
322 321 319 318 317 315 313 310 307 304 302 300 301 301 300 300 299 298 298 297 297 296 295 295 295 295 294 295 294 294 293 293
323 321 319 318 316 314 312 309 305 303 301 301 301 300 300 300 299 298 298 297 297 296 295 295 294 294 294 293 293 293 292 292
323 322 320 317 315 313 310 306 305 302 301 301 300 300 300 299 298 297 297 297 296 295 295 294 294 294 293 292 292 292 292 291
322 322 320 317 314 312 308 305 304 302 301 301 300 299 299 298 297 297 297 296 295 295 294 294 294 293 292 291 291 290 289 289
321 321 319 317 314 311 306 305 303 302 301 300 299 299 298 296 296 296 296 295 294 294 294 294 293 292 290 288 286 287 287 287
319 319 318 316 314 310 305 304 303 301 300 299 298 298 296 295 295 295 294 294 294 294 293 293 293 291 289 287 285 285 286 286
318 317 316 315 312 308 305 304 302 300 299 298 297 296 295 295 294 294 294 294 294 293 293 293 292 290 288 286 284 284 286 286

GFSFLT1_925_thetae_030.txt.gz
Theta_e
326 325 325 328 332 330 330 331 330 326 322 322 322 320 320 320 318 316 316 316 315 314 313 312 312 312 310 309 308 307 305 303
328 327 326 328 334 331 330 330 328 325 325 326 323 321 319 318 317 316 315 314 313 312 312 311 310 308 307 304 303 304 304 303
331 330 330 334 333 331 330 329 327 328 328 326 324 321 320 318 316 315 314 313 312 311 310 308 307 305 304 304 303 303 303 302
332 332 332 333 333 332 330 329 328 328 328 325 323 321 317 316 315 314 312 311 310 308 306 305 305 305 304 304 303 302 301 300
332 333 333 332 332 331 330 330 330 329 327 323 321 320 317 316 316 313 311 310 308 306 306 305 305 305 304 303 303 302 300 301
333 334 331 330 330 331 331 331 327 324 321 321 320 317 316 313 311 309 307 307 306 305 304 302 301 300 300 301 301 301 300 300
331 332 331 330 331 331 329 327 322 321 319 319 318 315 312 309 307 307 306 305 303 301 300 299 298 298 299 299 300 301 300 299
331 331 331 330 328 327 324 321 319 318 318 315 311 308 307 307 307 305 303 302 301 299 299 298 297 297 298 299 300 300 299 298
329 328 327 328 324 322 321 319 318 316 313 310 308 307 306 305 305 302 302 301 299 298 297 297 297 296 296 297 299 299 299 298
325 323 324 324 322 321 319 317 316 314 310 308 307 304 304 302 301 301 301 299 298 298 297 297 296 296 296 296 296 298 298 297
323 321 321 321 320 319 318 317 315 311 309 308 306 303 301 301 301 301 300 299 298 298 297 296 296 296 296 295 297 296 296 296
323 321 320 320 319 319 318 317 314 310 308 306 304 301 301 301 301 300 299 298 298 298 297 296 295 295 295 295 295 294 294 294
323 321 321 320 320 319 318 317 311 309 307 304 302 301 301 301 300 300 299 298 298 298 297 296 295 295 295 294 294 294 293 293
324 322 321 321 319 319 317 315 311 308 305 303 302 301 302 301 300 300 298 298 298 298 297 295 295 295 294 294 293 293 293 292
324 323 322 321 319 318 316 314 311 305 304 302 302 302 301 301 300 299 298 298 297 297 296 295 295 295 294 293 292 292 292 291
323 323 322 321 319 318 316 313 308 305 304 303 302 302 300 300 299 297 297 297 297 296 295 295 294 294 293 292 290 290 289 288
321 322 322 321 319 317 315 311 307 305 303 302 301 301 300 299 297 296 296 296 296 295 295 294 294 294 293 291 289 288 287 287
318 320 320 321 320 317 313 309 306 304 303 302 301 299 299 297 296 295 295 295 294 294 295 294 294 293 292 290 288 287 286 286
317 317 318 318 318 314 312 307 305 304 303 301 300 298 297 295 295 294 294 294 294 294 294 293 293 293 291 290 288 286 286 286

GFSFLT1_925_thetae_033.txt.gz
Theta_e
327 328 327 327 326 325 328 330 329 327 324 320 321 321 320 320 318 316 316 315 315 314 312 312 312 311 309 307 304 304 303 303
325 325 328 328 326 327 331 330 327 322 321 323 323 320 319 317 316 316 315 314 313 313 311 309 308 307 304 304 303 302 303 302
326 326 330 329 329 330 331 330 328 323 323 325 324 320 318 317 316 315 313 312 312 311 311 309 306 304 304 304 303 303 302 301
328 331 332 331 329 330 330 330 328 327 324 326 323 320 318 316 315 313 312 311 310 308 305 305 305 305 304 303 303 302 301 301
329 331 332 331 330 330 330 328 327 326 326 327 323 319 315 315 314 313 312 311 308 306 306 305 305 303 301 300 301 301 301 300
329 330 332 332 331 330 329 329 328 327 327 325 321 317 316 316 314 312 310 308 307 305 304 302 301 299 298 298 298 299 302 300
329 330 330 331 331 330 330 329 329 328 327 324 320 316 312 311 308 307 307 304 302 301 300 299 298 297 297 297 298 299 300 300
330 328 328 330 330 329 330 330 328 322 319 319 316 314 311 308 307 306 304 301 300 299 299 298 297 297 296 296 296 297 299 299
330 328 328 329 330 330 329 327 320 318 317 314 310 308 307 307 305 303 302 301 300 298 298 297 297 296 296 296 296 296 298 299
325 328 328 327 327 327 323 319 318 317 315 311 308 307 305 305 303 302 301 300 299 298 297 297 296 296 295 296 295 297 296 295
321 322 324 326 324 322 320 318 317 315 312 308 307 306 304 302 301 301 301 300 298 298 298 297 296 295 295 296 296 295 294 294
319 318 322 323 322 321 320 317 316 313 309 307 306 304 301 301 301 300 300 299 298 298 298 297 296 295 295 295 294 294 294 293
318 317 319 320 320 320 319 317 315 310 309 307 306 302 300 301 301 301 300 299 298 298 298 297 295 295 295 294 294 293 293 293
318 317 318 318 318 318 318 317 312 309 307 306 303 301 301 301 301 301 300 298 298 298 298 296 295 295 295 294 293 293 292 292
319 318 318 318 318 317 317 317 311 308 306 304 302 302 301 301 302 299 299 298 297 297 297 296 295 295 295 294 293 292 291 290
319 318 317 318 318 317 316 314 309 307 304 303 303 302 303 302 299 298 298 297 297 297 296 296 295 294 294 294 293 292 289 289
313 318 318 318 317 317 315 311 308 306 304 303 303 301 301 300 300 298 295 295 296 296 295 295 295 294 294 293 292 290 289 287
313 313 317 319 318 318 313 308 306 305 304 303 302 302 301 297 297 296 295 295 294 294 294 294 294 294 294 293 291 290 287 286
310 311 314 317 318 315 311 307 305 304 303 301 300 298 296 296 296 294 294 294 293 293 293 294 293 293 293 292 291 288 287 286

GFSFLT1_925_thetae_036.txt.gz
Theta_e
332 332 332 332 330 328 325 328 329 327 325 322 320 320 319 320 320 320 319 316 315 313 312 312 311 311 309 306 303 302 302 302
330 329 329 329 328 326 325 328 327 326 324 321 320 320 320 319 316 315 315 315 315 312 312 311 310 309 306 303 303 302 302 301
326 326 326 326 325 325 325 327 327 326 324 321 321 320 319 316 316 315 314 313 313 311 311 310 307 304 304 303 302 302 301 301
322 326 326 325 326 326 325 327 327 325 322 322 323 320 317 316 316 314 312 312 311 310 308 306 305 305 304 303 302 302 301 300
326 327 326 326 328 327 328 328 327 323 322 326 323 319 317 315 314 313 312 311 310 307 305 305 305 303 301 299 299 299 300 300
329 328 328 327 328 329 329 329 329 327 323 325 323 319 318 316 314 313 312 310 308 306 305 304 302 299 297 297 297 297 299 300
328 330 329 328 328 328 329 329 328 327 326 325 325 321 318 315 313 312 311 309 306 304 301 300 299 297 296 296 296 296 298 299
329 329 330 329 328 328 329 328 328 327 326 327 326 322 318 315 313 311 309 305 300 299 299 299 297 296 296 295 295 296 296 298
328 329 329 329 328 329 329 328 328 328 328 327 325 319 315 314 310 306 303 301 300 298 298 297 297 296 295 295 295 295 296 297
328 327 327 328 328 328 329 329 328 324 319 319 316 311 309 307 306 303 301 299 299 298 298 297 297 296 295 295 295 296 295 294
326 326 326 328 328 328 329 328 321 315 313 311 309 307 306 306 303 301 301 299 299 298 298 298 297 296 296 295 295 296 294 293
326 326 326 327 327 327 326 323 318 314 313 310 308 306 304 302 301 301 300 299 299 300 299 298 297 296 295 295 295 294 294 293
324 324 324 323 323 322 319 318 317 316 313 309 307 305 305 301 301 300 300 301 301 299 298 297 297 296 295 295 295 294 293 293
319 319 322 322 321 320 319 318 316 313 310 307 306 305 302 301 301 301 301 301 300 298 297 297 296 296 295 295 294 293 293 292
317 316 319 321 320 319 318 315 315 313 309 307 306 304 301 301 301 301 301 298 298 297 297 297 296 295 295 295 294 293 292 291
318 316 314 317 318 317 316 314 313 310 306 304 303 302 301 302 302 298 298 297 296 296 296 296 296 295 294 294 294 293 292 290
312 316 315 315 316 317 316 313 308 306 303 303 303 302 302 300 298 299 296 296 295 295 295 294 294 295 294 294 294 293 291 290
310 310 316 316 317 317 315 311 306 304 303 303 302 302 300 300 298 296 295 294 294 293 293 293 293 294 294 294 293 292 290 289
308 310 312 315 316 314 308 305 304 304 303 302 302 300 297 296 295 294 294 293 294 293 293 293 293 293 293 293 293 291 290 288

GFSFLT1_925_thetae_042.txt.gz
Theta_e
327 325 326 324 322 323 325 327 328 326 323 320 322 327 326 323 322 321 322 322 320 317 316 314 312 310 308 305 303 302 300 300
328 327 326 325 324 325 325 327 328 327 324 323 326 327 324 320 320 320 320 320 318 316 314 311 309 309 306 303 302 301 300 300
328 328 327 326 325 325 326 327 328 329 325 324 325 325 323 320 319 319 319 318 316 313 312 310 309 307 304 303 302 301 300 300
329 329 328 328 328 327 327 328 329 328 325 325 324 322 320 319 318 318 317 315 313 312 311 309 306 304 304 303 301 300 299 299
329 329 329 329 328 328 328 328 328 327 325 325 323 322 319 318 318 317 315 314 312 310 308 307 304 304 301 298 297 297 296 297
328 328 329 328 328 328 327 327 327 326 325 325 323 322 320 319 318 315 313 313 310 309 307 305 304 300 297 297 295 295 295 297
326 327 327 326 327 327 326 326 326 325 325 324 323 321 319 318 315 314 312 310 309 307 305 303 299 298 298 298 295 294 294 296
321 321 323 324 325 325 325 325 325 325 325 324 324 322 320 319 316 315 312 309 307 305 303 300 299 302 298 299 296 294 294 294
320 321 323 324 324 324 325 325 325 324 324 324 324 323 322 319 316 315 312 309 307 303 300 299 301 303 303 298 296 295 295 294
321 322 324 324 324 325 325 326 325 325 324 324 323 324 323 321 317 315 311 308 305 300 299 301 305 304 299 297 297 296 295 295
323 323 324 325 325 325 325 325 325 325 325 325 326 325 324 322 317 314 312 309 306 302 300 302 303 298 299 298 297 296 295 295
323 324 326 325 325 326 326 325 325 325 326 326 326 325 323 318 316 315 313 310 303 300 299 302 299 299 297 297 297 295 295 295
321 323 325 326 326 325 325 325 326 325 326 326 325 322 319 314 312 310 308 303 300 299 301 298 298 297 298 297 295 295 295 294
321 321 322 324 325 325 325 326 325 324 325 324 320 316 313 310 307 305 302 300 300 302 298 298 299 299 297 296 295 295 294 294
319 320 320 323 323 323 324 323 323 321 318 315 311 308 306 304 304 303 300 300 300 298 299 298 296 296 296 295 294 295 294 294
317 317 316 319 321 321 321 320 317 315 312 308 306 304 303 302 301 300 299 299 298 296 296 296 296 296 294 295 295 294 294 294
310 312 313 313 315 319 320 319 317 315 311 306 304 302 301 300 299 298 297 296 296 298 297 297 296 296 294 293 292 293 294 294
308 307 308 310 311 313 314 313 310 308 306 303 302 301 300 298 297 296 296 297 298 298 297 296 293 293 292 292 292 293 293 293
301 301 303 305 306 306 307 306 305 304 303 301 300 298 297 296 296 297 298 298 297 296 295 293 292 292 292 292 291 292 292 292

GFSFLT1_925_thetae_045.txt.gz
Theta_e
326 327 324 324 324 323 323 322 326 328 323 320 317 320 324 327 327 325 324 323 320 318 315 315 313 312 309 307 304 301 301 301
327 326 327 324 324 324 324 324 326 327 325 321 321 323 325 327 326 325 324 323 321 317 316 314 312 310 308 305 302 301 301 299
328 327 326 326 324 324 324 325 326 327 325 321 321 323 325 325 322 320 320 320 319 318 316 313 310 308 305 303 302 302 300 299
330 328 327 326 326 324 325 325 326 327 326 323 322 323 325 323 320 319 319 319 318 316 313 311 308 307 304 303 302 300 300 300
331 330 329 327 327 326 324 325 325 326 327 324 322 323 323 321 320 318 318 316 315 313 311 309 307 304 304 302 298 297 298 299
331 331 331 329 328 326 325 325 325 326 327 326 323 323 323 320 319 317 316 315 313 311 310 308 306 304 302 299 296 295 295 295
328 330 331 330 329 327 327 326 326 325 326 326 323 322 321 320 318 316 314 313 312 310 309 307 304 302 299 301 301 298 295 296
327 329 330 330 328 327 326 326 326 325 324 325 324 322 321 321 319 317 315 312 311 309 307 305 302 300 301 301 303 299 295 294
326 328 329 328 328 327 326 326 326 325 324 325 323 323 322 322 320 318 316 314 312 310 306 303 300 301 302 304 298 295 295 295
323 325 326 327 326 326 326 325 326 325 324 323 323 322 323 322 321 320 319 315 313 309 304 301 300 302 304 300 296 296 296 295
321 323 324 325 326 326 326 326 326 326 325 324 323 322 323 321 321 320 318 314 313 308 302 299 300 302 300 298 296 296 296 296
324 325 324 324 325 325 325 326 326 326 325 324 323 322 322 321 321 319 317 312 307 305 300 299 301 301 298 297 297 297 296 296
325 326 326 326 325 325 325 325 325 325 324 324 324 323 322 321 318 316 314 309 306 304 300 299 302 299 296 297 298 297 296 295
325 326 326 327 326 326 325 325 325 324 323 323 320 319 317 315 312 311 312 309 305 301 299 300 298 297 298 298 297 297 295 294
324 326 326 325 325 326 325 324 323 323 321 316 313 311 310 309 309 308 307 303 302 299 300 299 298 299 299 297 295 294 294 294
320 321 323 324 324 324 323 322 322 321 319 314 311 310 306 304 302 300 299 299 298 298 298 298 299 300 297 296 295 295 296 295
314 314 313 313 316 318 318 316 314 312 310 308 306 303 301 301 300 299 298 298 296 296 298 300 299 297 296 296 295 295 293 292
309 309 308 307 308 311 310 309 309 307 305 303 301 300 299 298 297 297 297 297 299 299 299 297 297 295 294 293 292 291 292 292
305 305 303 302 303 304 304 305 304 303 302 301 299 298 296 296 297 298 298 298 298 297 296 295 295 293 292 291 291 291 291 290

GFSFLT1_925_thetae_048.txt.gz
Theta_e
326 326 326 325 324 324 325 325 327 329 326 323 320 323 324 327 328 327 327 324 322 321 320 318 317 316 314 312 311 308 307 306
327 324 324 324 325 325 325 327 328 329 327 323 320 322 324 328 328 327 326 323 321 320 319 318 316 314 314 312 309 307 306 306
328 328 326 325 325 325 325 326 327 329 328 324 321 320 323 325 326 327 325 323 321 321 319 317 315 315 312 310 308 308 307 305
330 328 328 328 326 327 326 325 327 329 328 326 323 322 325 325 325 324 322 321 320 319 317 315 313 313 312 310 309 308 308 305
331 331 330 329 328 326 326 327 327 329 330 327 324 322 324 325 326 325 322 320 318 317 315 313 312 312 311 309 308 306 305 307
330 331 331 331 329 329 327 326 327 328 329 329 327 323 323 326 327 325 322 319 317 315 313 312 310 310 310 308 305 305 306 306
330 329 331 332 331 330 330 328 328 328 328 329 329 327 325 326 326 324 322 318 316 313 312 311 310 310 309 306 305 306 304 302
332 331 332 332 333 332 332 330 329 328 328 328 329 329 328 327 325 324 323 318 314 313 311 311 310 309 307 305 304 304 303 301
332 332 331 333 333 334 333 331 330 329 329 329 329 329 327 327 326 324 321 317 316 313 310 309 309 306 303 302 302 305 300 300
329 330 330 332 333 334 333 332 331 330 328 328 328 327 326 326 326 323 319 318 315 312 310 308 306 303 301 301 304 300 296 299
325 326 328 330 332 333 333 332 331 330 329 328 328 327 326 325 325 318 319 317 314 311 310 307 304 302 300 303 300 296 298 298
327 327 326 327 329 330 331 331 331 330 330 329 329 327 326 325 324 320 319 318 314 311 309 306 303 300 301 301 297 297 297 297
328 329 329 328 329 329 329 329 330 330 330 329 329 328 325 324 322 320 319 315 311 308 305 302 302 300 302 298 297 298 298 297
329 330 331 331 330 329 329 329 329 329 329 327 326 322 319 317 315 314 314 312 310 304 302 302 299 300 299 299 296 297 298 299
329 330 331 330 330 330 330 329 328 326 323 322 319 317 314 313 312 311 309 306 304 302 300 299 299 300 298 297 298 298 298 297
327 329 330 330 330 329 328 327 324 322 320 316 313 311 310 309 309 308 305 302 300 299 298 299 299 298 298 299 298 297 297 297
323 323 323 322 322 324 322 320 318 317 316 313 309 308 307 305 302 301 300 299 298 299 298 298 299 300 300 298 297 296 296 297
318 317 316 316 317 318 317 315 314 313 311 308 305 303 301 300 300 300 299 299 299 299 299 300 299 298 297 296 295 294 294 294
314 313 312 312 312 312 312 311 310 309 307 305 302 302 301 300 300 300 299 299 299 299 299 298 297 297 296 294 292 292 293 293

GFSFLT1_925_thetae_051.txt.gz
Theta_e
326 326 323 322 323 324 323 322 320 323 323 321 321 322 321 321 325 327 328 329 329 328 326 324 323 321 320 319 318 316 313 311
327 326 325 324 325 325 325 325 325 325 325 323 319 322 323 323 325 328 328 328 327 326 325 324 322 321 320 318 317 314 311 310
327 327 327 326 325 325 326 325 326 327 326 324 321 319 321 322 324 327 327 327 326 325 324 323 322 321 319 318 316 313 312 311
330 326 326 326 326 326 327 327 328 328 328 326 323 321 321 323 324 327 327 327 327 325 324 323 322 319 318 317 315 314 313 310
330 330 328 326 326 326 327 327 327 327 327 327 325 323 321 322 324 325 327 326 325 323 323 322 320 318 317 316 315 314 312 311
330 330 329 329 327 327 327 327 326 326 328 328 328 325 323 324 325 326 327 326 324 323 322 320 318 317 315 314 313 313 311 310
329 329 329 330 329 329 328 327 327 327 328 329 329 327 325 323 326 328 327 326 325 323 320 318 317 315 314 314 312 311 310 310
329 329 330 331 331 331 331 329 327 327 328 329 329 329 328 326 325 328 327 326 324 322 319 316 315 315 313 313 311 310 308 306
329 329 329 331 332 333 332 331 330 328 329 330 330 330 330 330 329 328 327 327 325 322 317 315 314 313 312 311 309 307 305 305
328 330 330 330 333 334 334 333 333 331 330 327 324 330 332 331 330 329 328 327 324 321 317 314 312 312 311 308 306 304 304 301
326 329 329 330 332 334 335 336 334 333 331 330 330 331 332 330 329 328 328 322 320 317 314 313 311 310 309 305 304 302 300 299
327 327 327 329 330 333 336 336 336 334 333 333 332 330 329 328 327 327 325 321 319 316 315 312 310 308 305 302 301 299 297 299
329 329 328 329 330 332 334 335 334 333 333 333 332 329 328 326 326 325 323 321 319 317 314 310 308 305 302 301 299 297 298 298
329 331 331 330 331 331 332 332 332 332 332 332 330 327 325 323 323 322 320 319 317 313 309 307 304 302 301 300 298 298 299 298
325 329 331 331 331 331 331 332 331 332 331 330 324 321 318 316 315 314 312 311 309 306 303 302 302 301 299 298 299 300 298 298
326 327 329 330 331 332 332 330 329 326 322 319 316 316 314 312 311 309 307 304 303 302 301 301 299 299 300 300 299 298 298 297
325 328 331 332 332 331 329 326 325 324 321 318 315 314 314 311 309 307 306 304 303 301 300 300 300 299 298 299 299 298 297 296
326 327 327 326 326 324 322 321 319 317 315 313 311 309 307 305 305 304 304 303 303 301 300 300 301 300 299 298 297 296 297 297
322 321 320 320 319 318 317 316 315 313 311 309 307 306 305 305 305 303 303 302 302 302 300 300 299 298 297 296 294 293 294 294

GFSFLT1_925_thetae_054.txt.gz
Theta_e
326 324 321 320 319 318 318 316 316 314 314 316 318 315 318 318 316 320 324 325 326 326 326 325 324 323 321 320 319 319 317 314
325 323 321 320 320 321 319 319 318 318 320 320 320 323 323 320 320 322 326 325 326 325 326 326 324 323 321 320 319 318 315 312
327 325 323 323 321 321 321 320 317 318 322 323 321 321 323 321 321 326 326 326 327 328 326 325 324 323 322 320 318 317 314 311
328 327 325 324 326 326 325 324 322 322 324 325 324 321 322 323 323 325 324 327 326 327 326 325 324 323 322 320 318 316 314 313
329 328 328 326 328 327 327 327 327 326 326 327 326 323 321 322 322 325 326 327 327 327 326 325 323 322 321 320 318 316 315 313
330 328 328 328 328 327 327 327 327 326 327 328 328 325 322 321 323 324 327 328 327 327 325 324 323 322 320 319 317 316 315 314
330 329 327 327 327 328 328 328 328 328 330 329 329 327 325 324 324 325 327 328 327 326 325 323 323 321 319 318 316 315 314 312
330 330 330 329 327 327 329 329 329 328 328 329 327 328 329 326 325 326 328 328 327 326 325 324 321 320 318 317 315 314 312 311
328 329 331 330 330 330 329 329 329 329 328 329 330 329 329 329 327 326 328 328 327 326 325 323 320 319 317 315 314 314 311 309
328 328 329 331 331 332 332 331 329 329 329 328 328 330 330 328 328 328 328 328 327 327 324 322 319 317 315 314 313 312 309 308
326 328 329 331 332 333 333 333 332 331 329 328 328 328 327 327 321 329 330 328 327 325 322 320 318 315 313 312 309 308 306 303
327 328 329 330 332 334 336 335 334 334 331 329 329 325 324 325 330 330 329 328 325 323 320 317 314 313 311 309 307 304 303 301
329 328 328 328 331 334 336 336 336 336 333 331 331 331 331 330 329 328 327 326 323 320 317 315 313 310 307 307 304 302 301 298
329 330 330 329 330 331 336 337 337 336 334 331 331 331 329 328 327 325 324 323 321 319 316 314 311 308 306 304 303 301 299 299
328 330 331 331 331 332 333 334 334 334 332 329 328 326 325 322 320 319 318 316 315 313 310 309 307 304 303 302 301 300 299 300
325 329 331 332 332 332 333 332 328 325 324 321 319 319 318 316 314 312 311 309 307 306 305 303 303 303 302 301 299 299 299 299
322 326 329 331 332 332 330 327 325 323 320 318 316 315 313 311 308 306 304 303 303 302 301 301 299 299 299 299 299 299 298 298
323 326 329 332 332 330 329 327 325 321 318 317 316 312 310 308 308 305 304 303 303 302 301 300 300 300 299 299 298 297 297 297
326 328 328 328 327 325 323 322 319 316 314 312 310 308 307 306 306 304 303 302 301 301 301 300 300 299 298 296 295 293 293 294

GFSFLT1_925_thetae_057.txt.gz
Theta_e
320 318 317 317 318 317 317 318 316 315 318 318 317 317 317 314 315 317 320 320 322 323 322 324 324 323 322 321 320 319 318 316
320 319 318 317 318 318 318 317 317 317 316 315 315 315 315 317 317 317 321 319 320 323 324 324 325 323 323 321 320 319 318 315
322 320 320 318 318 318 317 316 314 314 313 315 316 316 316 316 316 317 317 320 324 325 325 325 325 324 323 321 320 319 318 316
323 320 320 319 319 319 315 316 315 314 314 316 317 318 319 318 321 320 322 324 325 324 324 325 325 325 323 322 320 320 318 315
323 321 320 319 319 320 318 319 318 316 319 321 320 321 320 322 322 320 319 325 325 326 324 325 325 325 323 323 321 320 318 315
325 322 322 321 320 320 320 320 318 317 318 321 322 324 320 320 321 322 321 323 324 326 325 326 326 325 323 322 321 320 318 315
325 325 323 323 324 323 323 322 321 318 319 321 324 326 323 321 320 322 322 326 325 326 326 326 326 325 324 322 321 320 318 316
326 325 325 324 324 326 325 325 325 325 324 325 326 326 327 324 321 321 323 325 326 327 326 325 325 324 323 322 320 318 317 315
327 326 326 326 326 326 326 326 326 326 326 326 326 326 327 327 324 324 324 324 325 326 326 326 325 324 323 321 319 317 316 314
328 326 325 325 327 326 327 327 326 327 327 328 328 328 327 328 327 325 325 326 326 326 327 326 324 323 322 320 318 316 314 310
323 328 327 326 326 326 326 327 327 327 327 327 327 328 328 327 328 328 324 324 326 327 326 325 323 322 320 318 316 314 311 309
320 321 326 328 328 327 326 326 327 328 327 327 327 328 329 329 329 329 327 326 328 324 324 324 321 319 317 315 313 310 308 307
322 323 324 325 329 329 329 329 328 328 328 328 328 327 328 327 324 327 324 329 327 325 321 320 319 317 315 313 310 307 306 305
323 324 325 326 329 330 331 331 331 331 330 329 328 328 325 326 327 328 327 325 323 321 320 318 316 314 311 309 307 305 304 303
324 325 325 327 329 332 334 335 334 330 330 330 329 328 327 326 324 325 324 322 321 319 317 314 312 309 307 306 304 303 302 300
325 325 325 327 330 330 326 328 330 330 329 328 323 321 322 321 321 319 316 315 313 311 310 308 306 305 303 303 302 300 298 299
323 327 328 328 330 327 324 321 321 322 321 320 320 318 316 314 313 311 310 308 306 305 304 303 302 302 301 300 299 299 299 299
316 326 329 329 329 326 324 322 321 320 318 317 315 313 311 310 307 305 304 303 302 301 301 300 300 300 300 299 299 299 298 297
327 326 327 330 329 327 324 321 318 318 315 312 311 310 308 307 305 304 302 302 301 300 300 300 300 300 299 297 296 294 293 293

GFSFLT1_925_thetae_060.txt.gz
Theta_e
317 317 318 317 318 318 317 317 317 316 316 316 316 316 316 315 316 319 322 321 322 323 323 323 324 324 322 322 320 318 318 317
318 317 317 317 318 318 317 315 315 316 315 316 316 318 316 315 315 315 319 319 320 323 322 322 323 324 323 322 320 319 319 318
318 317 316 316 317 317 316 316 316 316 316 316 316 318 317 318 318 318 319 320 321 319 319 322 323 325 324 322 321 320 319 318
319 318 316 316 317 317 316 317 316 316 316 316 316 316 316 315 316 316 315 313 316 319 320 322 324 324 324 323 322 321 319 318
320 319 318 317 317 317 317 316 317 315 317 315 315 316 316 315 315 315 315 314 319 319 321 324 324 324 324 324 323 321 320 318
322 320 319 317 317 317 316 316 315 315 315 314 315 316 316 316 316 316 314 317 318 321 324 325 324 324 324 325 324 322 320 319
322 321 319 318 318 318 315 315 316 314 314 314 316 317 317 318 318 319 321 322 320 318 323 325 325 324 325 325 324 323 322 319
323 321 319 318 318 318 317 316 317 315 314 315 318 318 319 321 319 318 320 320 320 319 320 324 324 325 325 325 324 322 321 319
324 322 321 320 319 318 319 318 318 317 315 315 317 320 321 321 322 320 319 320 321 321 322 325 325 325 326 325 324 322 320 318
325 324 322 321 321 320 320 320 320 320 318 316 317 319 321 323 325 324 321 320 321 322 323 325 326 325 325 324 322 320 319 318
326 325 324 323 322 322 322 323 323 323 322 321 321 322 323 324 325 326 325 323 324 325 326 325 326 325 325 323 321 319 317 316
325 325 325 325 325 324 324 324 324 324 325 325 324 325 325 326 326 327 326 324 324 324 325 325 325 324 322 321 319 317 315 313
321 324 325 325 325 325 325 325 325 325 325 326 326 326 326 327 327 327 325 324 325 325 325 325 324 323 321 318 316 314 311 308
318 318 320 325 326 325 325 325 325 326 326 326 327 326 326 327 327 327 326 322 323 325 324 323 321 319 318 315 314 312 309 307
320 321 321 323 325 326 326 325 325 325 327 327 327 327 327 327 326 327 326 324 325 321 321 320 318 316 314 312 309 307 305 304
321 322 321 325 329 328 328 328 328 327 328 327 327 327 326 325 324 324 325 323 321 321 317 314 312 310 309 307 306 305 302 301
322 323 323 327 327 327 327 327 329 329 328 326 325 322 321 321 321 321 318 316 314 314 311 309 307 306 305 304 303 302 299 299
321 323 324 328 326 326 325 323 325 325 322 317 316 317 315 314 315 313 312 310 309 308 305 305 304 303 302 301 299 299 299 299
315 323 324 328 325 323 322 320 318 318 316 315 313 313 311 309 308 307 305 306 305 303 302 301 300 299 299 299 299 298 297 294

GFSFLT1_925_thetae_063.txt.gz
Theta_e
317 318 319 318 319 319 319 319 319 318 318 320 320 321 322 322 320 317 316 317 316 316 319 321 321 319 319 320 320 319 318 317
317 318 318 318 319 319 319 318 317 317 316 317 320 320 320 319 322 320 321 322 322 322 323 323 324 323 323 323 321 320 317 316
317 316 317 317 318 318 317 317 317 316 317 318 318 318 316 316 317 318 317 321 321 322 323 323 322 323 323 323 322 320 318 317
318 316 315 316 318 317 316 316 316 316 316 316 316 317 316 316 315 315 316 317 319 320 319 322 322 322 322 323 322 319 319 318
319 317 315 315 316 316 316 316 315 315 315 316 316 315 316 316 315 315 315 317 318 316 318 320 321 321 323 323 323 322 320 319
320 317 316 315 316 316 316 316 316 315 315 315 315 315 316 316 316 316 317 317 317 316 314 317 318 318 322 324 324 323 322 319
321 319 317 316 316 316 316 316 315 316 315 315 315 315 315 315 315 315 315 315 315 315 314 315 320 321 323 324 324 324 323 321
322 320 318 317 316 316 316 316 316 315 315 315 315 315 315 315 315 315 315 315 315 315 313 317 319 319 323 324 324 323 322 322
323 321 319 318 316 316 316 315 316 316 315 315 314 314 315 315 316 315 315 316 315 315 316 320 320 318 319 324 324 323 323 322
323 322 320 319 317 317 316 315 315 316 315 315 315 315 316 316 316 318 318 316 316 317 319 319 320 321 321 323 324 323 318 321
323 322 321 320 318 317 317 317 315 315 316 314 314 314 315 317 318 319 320 320 321 322 321 321 320 322 323 324 324 322 321 320
323 323 322 321 320 318 317 318 317 316 316 316 314 314 315 316 319 320 322 324 325 323 323 324 324 324 324 323 322 322 320 318
321 323 323 323 321 320 320 319 319 319 319 319 318 316 317 319 320 322 323 323 325 325 323 324 324 324 322 322 321 319 318 314
317 321 323 323 323 322 321 321 321 321 322 322 322 322 323 323 324 324 325 325 325 324 320 321 322 322 321 320 319 317 315 313
315 318 322 323 323 324 324 323 322 323 323 324 324 324 324 324 324 325 325 324 326 325 321 320 323 321 318 319 316 313 311 308
317 318 317 319 323 323 323 323 324 324 324 324 325 325 325 325 325 325 325 325 325 323 321 322 319 317 316 315 313 310 308 305
317 319 319 321 324 324 323 324 323 324 325 325 325 325 325 325 324 322 323 322 321 321 320 319 314 312 313 312 309 306 304 302
315 318 320 322 327 327 325 325 324 324 324 325 325 324 322 321 321 321 320 317 315 313 312 311 310 310 308 306 305 303 301 299
313 316 319 323 326 325 324 325 326 325 325 324 322 320 316 316 316 314 310 310 310 310 308 308 307 304 303 302 300 299 298 298

GFSFLT1_925_thetae_066.txt.gz
Theta_e
317 318 318 318 319 320 321 321 322 322 321 320 323 318 317 320 324 324 322 316 316 315 315 315 317 317 317 317 318 318 317 316
318 318 318 319 319 319 320 320 320 319 319 320 320 321 321 323 323 322 321 316 316 316 316 316 317 317 319 319 319 319 318 317
316 317 317 318 319 319 319 319 319 319 318 320 320 318 320 322 319 319 319 317 316 316 317 320 321 322 321 321 321 321 319 317
318 316 316 316 318 318 318 318 318 318 318 317 318 319 319 319 320 320 321 321 320 320 320 321 322 322 323 323 323 322 320 318
318 316 315 315 316 318 318 317 317 317 316 316 317 319 319 318 317 317 318 319 319 319 320 320 320 322 321 322 322 322 321 318
319 317 315 315 315 317 316 317 316 316 316 316 317 317 318 317 316 315 316 316 316 317 317 316 316 319 319 319 321 322 322 320
320 318 316 314 315 316 315 315 316 316 316 315 316 316 317 316 316 316 315 315 315 315 316 316 316 315 316 318 319 321 323 322
321 318 316 315 314 315 315 315 315 316 315 315 315 315 316 316 315 315 315 315 315 315 315 316 316 315 316 317 319 322 322 321
322 319 317 316 315 315 315 315 315 315 315 315 314 314 314 314 315 315 315 315 315 315 315 315 315 315 314 317 320 321 322 322
322 321 319 317 316 315 315 315 315 315 314 314 314 314 314 314 315 315 315 315 315 315 315 315 315 315 317 319 321 321 322 322
322 322 320 319 318 316 315 316 315 315 315 314 314 314 314 314 315 315 315 315 316 316 315 315 316 318 319 321 321 322 322 321
321 321 322 321 319 317 316 315 315 315 315 315 315 315 314 314 315 316 316 316 316 317 317 318 319 322 323 321 322 322 322 321
319 321 321 321 320 318 317 316 316 315 315 315 315 315 315 315 315 315 315 316 316 317 316 317 321 324 323 323 323 321 321 320
316 319 321 320 320 319 318 317 317 316 315 315 316 314 314 314 314 315 314 316 316 318 320 321 323 324 322 322 323 322 322 319
312 316 320 321 321 320 320 319 317 317 317 317 317 316 315 315 315 316 318 320 321 322 322 323 322 321 320 320 321 319 319 316
312 314 318 320 321 322 321 320 319 318 318 319 318 318 318 318 318 319 320 320 322 323 322 322 322 319 319 320 319 316 313 309
312 314 314 316 320 321 322 322 321 320 320 320 321 321 321 321 321 322 322 322 322 322 322 322 322 317 316 319 316 311 308 306
312 313 316 316 317 320 321 321 321 321 321 321 322 322 322 322 323 323 323 321 321 321 320 317 317 317 315 311 310 307 305 302
313 311 314 318 319 320 321 321 321 321 322 322 323 323 323 322 322 322 319 318 317 313 312 311 311 309 306 305 305 304 301 299

GFSFLT1_925_thetae_069.txt.gz
Theta_e
320 320 318 319 320 321 323 323 324 324 324 323 324 322 323 322 321 321 322 315 314 314 314 314 316 318 317 317 318 315 314 311
320 319 319 318 319 320 321 322 323 324 323 322 324 323 324 323 320 322 322 317 314 315 315 315 316 316 317 318 318 317 317 315
320 320 319 319 318 319 319 321 321 322 321 319 319 320 321 321 319 322 321 317 315 314 315 315 315 315 317 318 317 318 318 317
321 320 319 318 318 317 319 319 320 320 320 319 319 319 318 319 318 320 320 319 317 316 315 315 316 317 317 318 319 319 320 318
323 320 318 318 318 317 319 319 319 319 319 319 319 319 317 318 319 320 319 319 317 316 316 317 318 320 320 319 319 322 322 320
325 321 319 317 317 317 319 319 319 318 318 318 318 319 319 319 318 317 316 317 317 317 317 317 319 318 320 320 320 321 321 321
325 322 319 317 317 316 318 317 317 318 317 317 318 319 320 318 317 317 317 319 319 319 317 317 318 317 318 318 319 320 320 321
325 323 320 318 317 315 317 317 317 317 317 316 316 317 318 319 317 316 316 316 316 316 317 317 317 317 316 315 316 316 319 320
325 324 321 319 316 316 317 316 316 316 317 317 316 316 317 317 318 317 316 316 316 315 315 315 316 316 316 316 315 315 316 319
325 324 322 320 318 317 316 315 315 316 317 317 316 315 316 316 316 316 316 316 315 315 315 315 315 315 315 315 315 317 318 320
324 325 322 321 319 318 317 316 316 316 317 316 316 315 315 315 316 316 316 316 316 315 315 315 315 315 315 315 316 318 320 320
324 324 323 322 320 319 318 317 317 317 316 316 315 315 314 314 314 314 315 315 315 316 316 316 316 316 316 316 317 320 321 321
321 323 323 323 321 320 319 318 317 317 316 316 315 315 315 314 314 314 315 315 316 316 315 315 316 317 317 316 319 322 321 320
319 322 323 324 323 321 320 319 318 317 317 317 316 315 315 315 315 315 316 316 317 317 317 316 317 317 317 316 321 321 322 321
317 319 323 323 323 322 321 319 318 318 317 317 317 316 315 316 316 316 316 316 316 317 317 316 318 319 318 319 319 321 321 319
315 317 319 322 323 322 322 320 318 318 317 317 317 317 316 316 316 315 315 315 316 317 317 319 320 321 321 321 321 320 318 315
317 315 316 319 322 323 322 321 319 318 318 318 318 317 317 316 316 316 316 316 318 320 321 321 321 321 321 321 320 318 315 310
318 317 317 317 318 321 322 322 321 319 319 319 319 318 318 318 317 317 317 318 319 321 321 321 321 321 320 319 316 316 311 307
317 317 316 316 317 318 321 322 322 321 321 320 320 320 320 320 320 320 320 321 321 320 321 321 319 318 316 311 311 308 305 303

GFSFLT1_925_thetae_072.txt.gz
Theta_e
328 326 324 323 324 324 324 324 324 323 323 322 322 322 322 323 323 317 313 316 312 316 317 319 319 318 318 317 317 316 315 314
328 326 323 323 322 323 324 323 324 323 323 322 322 323 322 323 321 321 315 317 317 317 316 319 320 319 320 320 320 319 317 316
329 327 325 323 322 322 323 322 323 323 322 323 323 322 324 323 322 318 319 320 318 319 317 318 320 321 322 321 321 320 321 318
331 328 326 324 321 322 323 322 322 323 324 325 323 322 322 322 322 319 318 321 318 318 314 314 316 319 321 321 321 322 322 320
331 329 327 324 323 321 322 321 323 321 322 321 322 323 321 322 321 321 321 322 318 316 315 315 316 316 320 321 320 322 323 323
331 330 327 325 323 321 321 322 323 321 320 322 321 322 319 319 320 319 318 320 318 317 315 315 315 315 316 318 319 321 323 321
330 329 327 325 323 322 321 322 322 322 322 321 320 320 320 319 319 319 319 319 319 317 316 316 316 316 319 318 319 319 319 321
330 330 329 326 324 322 322 322 322 322 322 322 321 322 321 320 318 319 319 319 319 317 317 316 317 316 317 317 319 319 321 320
329 330 329 327 325 323 321 322 322 322 322 322 322 322 322 321 321 319 320 319 318 318 317 316 316 317 316 317 320 321 320 322
328 329 329 327 326 324 322 322 322 322 322 322 322 321 322 323 322 320 320 319 319 319 318 319 318 319 320 320 321 321 321 322
327 329 328 327 326 325 323 322 321 321 321 322 321 321 321 321 321 322 321 320 319 319 319 319 319 319 319 320 320 320 320 321
326 327 327 327 326 325 324 323 321 320 321 322 321 321 320 320 321 321 321 321 320 319 319 319 319 318 319 319 319 320 320 321
323 327 328 327 327 326 325 324 323 321 321 322 321 321 320 320 320 321 321 321 321 320 320 319 318 318 319 319 320 320 320 321
322 326 328 328 327 326 326 325 324 323 322 322 322 321 321 320 320 320 320 321 321 321 320 320 319 319 319 319 320 321 321 321
322 322 325 327 327 327 326 325 325 324 323 322 322 321 321 321 320 319 319 319 319 319 319 319 319 319 319 319 320 320 318 315
322 322 323 326 327 327 326 326 325 324 324 323 323 322 321 321 320 320 319 319 319 319 319 320 320 320 319 318 318 318 317 318
321 322 321 321 324 326 326 326 325 324 324 324 323 323 323 322 320 320 320 320 320 320 320 320 320 319 319 319 320 319 320 320
321 321 321 321 320 322 325 326 326 325 324 324 323 323 323 322 322 321 320 320 320 320 319 319 320 321 321 320 321 320 319 318
319 319 320 319 320 320 322 324 325 325 324 324 323 323 323 322 322 321 321 321 320 320 321 321 322 322 320 320 321 317 314 310

GFSFLT1_925_thetae_075.txt.gz
Theta_e
330 330 327 327 327 328 327 326 324 324 325 325 324 323 323 321 323 322 321 322 320 318 318 319 319 319 318 318 318 318 317 316
330 330 328 326 327 326 327 325 325 324 324 324 323 324 321 320 321 321 319 319 319 319 319 320 319 317 317 319 319 319 318 317
331 331 329 326 326 325 326 326 326 324 323 324 324 322 322 322 322 321 316 319 319 318 319 321 320 319 320 321 321 321 320 318
332 332 330 328 326 325 326 325 324 324 325 325 324 323 322 322 323 322 316 316 318 317 318 320 321 322 322 322 323 323 323 321
332 332 331 330 326 325 324 325 324 324 324 324 323 323 323 322 322 322 321 317 317 319 321 321 321 322 323 324 324 324 322 321
332 332 331 330 327 325 325 324 325 324 325 324 323 323 322 323 322 321 320 319 320 319 320 318 317 319 321 322 323 323 323 320
331 331 331 330 328 325 325 324 325 325 324 325 325 325 323 323 322 321 319 318 318 320 319 317 315 316 316 318 319 318 319 321
330 332 332 330 329 326 325 325 325 324 324 325 325 325 324 322 323 321 320 318 318 319 319 317 315 317 317 317 318 317 318 318
328 331 332 330 329 327 325 324 325 325 324 324 324 324 324 324 323 322 322 320 319 319 319 318 315 316 317 318 318 318 318 318
328 329 331 331 330 329 326 325 325 325 325 325 324 324 324 323 323 323 322 321 321 320 318 317 316 316 318 319 319 318 318 319
326 329 331 330 330 329 328 325 324 325 325 325 325 325 325 325 324 324 323 323 322 321 320 319 318 318 319 320 320 319 318 319
326 329 329 330 330 330 329 327 325 324 325 325 325 325 324 325 325 325 324 323 323 323 322 321 320 319 320 320 320 320 320 321
324 326 329 330 330 330 329 328 327 325 325 325 325 325 324 324 325 326 325 324 324 323 323 322 322 321 321 321 321 321 321 321
323 325 328 330 329 329 329 329 328 327 325 325 326 326 325 324 325 325 325 326 324 323 323 323 322 322 322 322 322 322 322 321
322 323 324 328 329 329 329 329 329 328 326 325 325 326 326 325 324 324 324 324 325 324 324 323 322 322 322 322 322 321 322 321
321 323 323 324 328 329 329 329 329 329 328 327 326 326 326 325 325 324 324 324 324 324 324 324 324 323 322 322 322 321 321 321
321 321 322 323 323 327 328 329 329 329 329 329 327 327 326 326 325 325 324 324 323 323 323 323 324 323 323 322 322 320 320 320
321 321 321 322 322 322 324 327 328 329 329 329 328 328 327 327 326 325 324 324 323 323 323 322 322 323 322 321 321 319 318 319
321 321 322 321 320 319 320 322 326 328 329 328 328 328 328 327 327 326 325 324 324 324 324 324 323 323 323 322 321 319 318 320

GFSFLT1_925_thetae_078.txt.gz
Theta_e
330 329 329 327 330 329 328 326 326 327 326 325 324 322 322 322 321 317 317 322 317 318 323 324 325 324 322 319 319 318 317 317
331 329 328 327 329 329 328 326 325 325 325 324 323 322 323 323 322 322 321 321 321 322 321 321 321 321 319 318 317 316 316 316
332 331 329 327 328 329 327 327 325 324 324 324 324 323 323 323 322 320 320 321 321 320 320 319 320 320 318 318 320 319 318 317
332 333 331 328 328 327 327 326 326 324 325 325 324 323 322 322 322 320 321 321 322 320 320 320 319 318 319 319 320 320 320 318
332 333 332 330 328 327 327 325 326 324 324 325 324 323 323 322 321 321 320 319 320 320 320 322 320 320 321 320 321 322 322 320
331 333 332 331 329 328 326 326 324 325 324 325 325 324 323 322 323 322 321 318 319 318 318 320 320 322 321 322 323 323 323 322
329 332 332 331 329 327 326 325 326 324 325 324 324 324 323 323 322 322 322 320 316 319 321 320 321 322 323 323 323 323 322 321
329 332 332 332 330 327 327 326 325 326 325 325 324 324 324 323 322 322 321 320 319 317 320 320 319 319 321 322 322 322 321 319
329 331 333 332 331 328 326 326 325 326 325 326 325 324 324 324 323 322 321 319 319 319 319 319 319 318 316 318 317 318 319 318
327 329 332 332 332 329 327 326 326 326 325 324 325 326 326 323 323 323 323 321 319 318 317 319 319 319 316 314 316 317 319 318
327 328 332 332 332 331 328 325 326 327 325 324 324 324 325 325 324 323 323 322 320 319 317 318 319 318 318 315 317 318 318 319
326 328 331 332 332 331 330 327 326 326 327 326 325 325 325 324 324 325 323 324 322 321 320 319 319 318 318 316 317 318 319 319
326 327 329 331 332 332 331 330 327 326 327 327 327 327 326 325 326 325 325 324 323 322 322 321 320 319 318 318 318 318 319 320
323 322 327 329 331 331 332 331 329 327 326 327 327 327 327 327 326 327 325 325 324 324 323 323 322 320 320 319 318 318 319 320
321 322 323 328 329 331 331 332 331 329 328 327 327 327 327 327 326 326 327 326 326 325 324 324 323 323 322 321 320 320 320 320
322 322 322 322 324 330 330 331 331 330 329 328 327 327 327 327 326 326 326 327 327 326 325 324 324 323 323 322 322 321 321 321
321 321 322 322 322 322 326 330 331 331 330 330 328 327 326 327 327 326 326 326 326 326 326 325 324 323 323 323 322 322 322 322
321 320 321 322 323 324 322 320 326 330 331 330 330 329 327 327 327 327 326 326 325 325 325 325 325 324 324 323 322 322 322 322
320 320 322 323 323 320 321 323 321 322 330 330 330 330 329 328 328 327 327 326 325 325 325 325 325 325 325 325 324 323 322 322

GFSFLT1_925_thetae_081.txt.gz
Theta_e
326 328 329 331 330 329 329 327 329 328 325 323 324 324 324 324 324 323 323 323 323 324 320 322 320 318 317 320 319 318 319 319
327 328 327 330 329 328 327 325 326 326 326 324 323 323 323 323 324 324 324 323 324 324 323 322 324 321 321 319 318 318 318 319
326 327 326 329 329 328 327 324 324 325 325 324 322 322 323 323 323 323 322 322 323 323 324 322 323 323 322 319 319 318 317 317
328 326 325 328 328 328 327 324 323 323 325 324 323 322 323 323 321 320 319 321 317 316 319 318 322 323 319 318 318 317 316 316
329 328 325 326 327 328 326 326 324 323 324 324 323 323 323 323 322 319 319 320 317 320 320 321 321 321 319 318 317 317 317 317
329 329 326 326 326 327 326 325 325 324 325 324 324 323 323 322 322 320 321 321 321 321 320 320 319 319 318 318 319 319 319 318
329 329 328 326 326 326 326 325 324 324 324 324 324 323 323 322 322 321 319 319 320 321 320 320 319 319 320 318 319 320 320 319
329 330 329 327 326 325 326 325 323 325 324 324 324 323 323 322 322 321 320 319 319 320 319 319 321 320 321 321 320 320 322 321
330 330 329 328 326 325 325 324 324 323 324 325 324 324 323 323 322 322 321 320 320 318 318 320 321 319 321 321 321 321 322 322
330 329 328 329 326 326 326 324 324 324 323 323 323 324 323 323 322 322 322 320 320 319 318 318 321 321 320 321 321 322 322 319
322 329 328 329 327 326 326 325 324 325 324 324 324 323 323 323 323 322 322 321 320 319 319 317 318 320 320 319 319 320 321 320
321 323 329 329 328 326 325 325 324 324 325 324 324 325 325 325 324 323 323 322 321 319 319 319 318 318 319 318 317 316 317 317
317 319 328 329 329 327 326 325 325 325 325 324 324 323 324 324 324 323 323 323 322 322 320 318 317 318 318 317 317 317 316 317
318 319 320 323 329 329 327 326 324 324 325 325 324 323 323 323 324 324 324 323 323 322 321 320 317 317 317 317 317 316 317 317
319 318 320 320 321 326 329 328 326 325 325 326 325 324 324 324 324 323 323 323 323 323 322 321 321 319 318 317 317 317 317 317
319 319 320 321 322 323 323 324 329 328 326 326 326 326 326 326 325 324 324 325 324 324 323 322 322 321 320 319 319 318 317 317
319 321 322 321 318 317 318 320 321 328 328 327 326 326 326 326 326 325 325 325 325 325 324 323 323 322 322 321 320 319 318 318
321 319 317 315 312 311 312 315 320 322 324 328 328 327 326 326 326 326 325 325 325 326 325 325 324 323 323 323 322 320 320 319
317 314 311 308 307 307 308 313 311 313 314 316 320 327 327 326 325 326 326 326 325 324 325 325 325 324 323 323 323 323 321 321

GFSFLT1_925_thetae_084.txt.gz
Theta_e
324 329 331 333 332 331 331 330 328 327 324 325 324 326 326 327 326 326 326 326 325 323 318 310 310 312 319 319 317 318 319 319
324 328 330 331 331 331 330 328 327 326 323 323 320 322 324 325 325 325 326 327 326 323 316 316 313 314 319 320 320 319 319 319
324 327 328 328 328 328 327 326 328 326 324 323 323 323 323 324 324 324 325 326 326 324 318 320 315 316 318 321 319 318 318 319
325 326 327 327 327 327 326 325 325 326 325 323 323 322 322 323 323 323 323 324 323 322 321 320 319 319 317 320 319 318 318 318
325 324 326 326 326 326 325 324 323 324 325 324 323 323 321 321 322 322 323 323 323 323 323 320 321 321 321 320 319 317 317 317
326 325 326 326 326 325 324 323 323 323 324 324 323 323 322 323 322 322 322 322 322 321 322 323 322 322 322 321 318 318 317 317
326 325 326 326 326 325 324 323 323 323 323 324 323 323 323 323 322 321 321 321 321 319 320 321 321 321 322 319 319 317 317 316
327 325 324 324 325 324 324 324 324 324 324 324 324 323 322 323 322 321 319 319 321 318 320 320 320 320 322 321 318 318 317 317
328 326 324 325 324 324 324 324 324 324 324 324 323 323 322 322 322 322 320 319 319 320 320 321 320 320 319 319 318 318 319 318
328 327 325 325 324 324 324 323 323 323 323 323 324 323 323 322 322 322 321 320 319 319 320 320 319 320 321 319 320 319 319 320
329 329 327 326 325 324 324 323 322 323 323 323 323 324 323 323 322 322 321 321 319 318 319 319 319 319 321 321 321 321 321 320
325 329 328 327 325 324 323 323 323 322 323 323 323 323 323 323 322 322 322 322 321 319 318 318 318 319 320 320 320 321 321 320
320 325 325 326 325 325 324 323 323 323 323 322 322 322 322 323 323 322 322 322 322 321 319 318 318 318 318 320 320 319 319 319
321 321 321 323 326 326 324 324 323 323 324 323 323 323 324 323 324 323 323 323 322 321 320 319 319 318 317 318 318 318 318 317
321 321 320 319 319 321 323 324 325 324 323 323 323 323 323 323 324 324 323 323 322 322 322 320 318 318 318 318 317 316 316 316
322 319 316 314 314 314 315 317 322 325 323 324 323 323 323 322 322 322 323 323 323 323 322 322 321 319 318 317 317 317 316 316
317 314 312 310 310 309 312 313 315 318 322 325 324 324 323 323 323 322 322 322 322 322 322 322 322 321 320 319 317 317 316 316
312 310 307 305 304 305 308 308 309 310 311 313 318 317 322 324 324 323 323 323 322 323 322 322 322 321 321 321 320 318 318 317
307 305 302 300 300 301 303 303 304 304 305 308 309 309 310 313 316 324 324 324 323 323 323 323 323 323 322 322 321 321 319 319

GFSFLT1_925_thetae_087.txt.gz
Theta_e
320 329 331 332 332 331 331 330 328 326 324 323 325 325 326 327 327 328 328 328 328 325 324 322 319 316 317 318 316 317 319 320
321 330 331 331 330 330 330 328 327 326 324 323 323 325 326 326 326 327 328 327 327 325 324 318 316 314 314 314 317 317 318 320
324 328 330 330 330 328 329 327 327 326 323 322 322 323 324 325 326 326 327 326 325 323 323 314 315 312 314 316 316 316 318 319
325 328 329 329 328 327 327 327 326 325 324 324 324 322 322 324 325 325 326 326 325 323 322 315 314 311 317 318 317 317 318 318
324 327 327 328 328 327 327 326 325 324 324 323 323 322 323 323 323 324 324 326 326 324 321 316 314 312 318 319 319 319 318 318
324 327 327 327 327 325 325 326 325 327 325 323 323 323 322 322 323 323 324 324 326 325 323 318 317 312 317 318 320 318 318 318
324 324 326 325 325 324 324 324 324 325 325 324 323 323 322 321 321 322 322 323 323 323 322 320 318 320 315 317 319 319 318 318
323 323 325 325 324 323 323 323 322 322 323 324 323 323 323 321 320 320 321 321 322 322 322 321 322 319 317 320 320 319 317 317
323 324 325 325 324 323 323 322 321 321 322 322 324 323 322 322 322 321 321 320 321 322 320 320 322 322 321 321 321 320 320 318
323 324 324 325 324 324 323 322 321 321 321 322 323 323 323 323 322 322 322 322 320 320 320 319 320 320 320 321 321 319 320 319
324 324 324 325 324 324 324 323 322 322 321 323 323 323 323 322 322 322 322 321 320 320 320 319 319 320 320 320 320 321 320 319
326 324 323 324 323 323 323 323 323 322 323 323 323 323 323 322 322 322 322 322 321 319 318 319 318 320 320 320 320 320 320 319
325 325 324 323 323 323 323 322 322 322 322 322 322 323 322 322 322 322 322 322 321 321 320 319 319 319 319 319 320 320 320 320
319 320 322 323 323 323 323 323 323 323 322 322 322 322 323 322 322 322 322 322 322 321 321 319 318 318 318 319 319 319 320 320
316 315 315 315 316 317 319 320 323 323 323 322 322 322 322 322 321 321 322 322 322 322 321 321 320 319 318 317 317 318 318 318
313 311 311 310 310 312 311 311 313 321 322 323 323 322 322 322 322 322 322 322 322 322 322 321 320 320 319 319 317 316 316 317
309 307 306 305 305 306 306 307 308 310 312 315 320 322 322 322 322 322 323 323 323 322 322 322 321 320 319 320 320 318 317 317
306 303 302 301 301 302 301 301 301 302 303 304 305 307 310 312 316 321 322 322 321 322 322 322 321 321 321 320 319 318 317 317
302 300 298 298 298 298 298 298 298 298 298 297 299 300 302 304 306 307 310 314 320 322 322 321 321 322 321 321 321 320 317 317

GFSFLT1_925_thetae_090.txt.gz
Theta_e
310 321 326 328 330 332 332 332 333 332 329 327 326 327 329 329 328 328 326 328 329 328 326 326 324 323 322 318 317 318 320 319
310 316 327 329 330 331 330 330 330 326 325 322 321 323 325 326 327 328 327 327 327 328 326 324 321 323 321 318 317 318 318 318
320 326 328 329 330 330 328 327 326 324 324 323 323 323 325 326 326 325 327 325 327 327 326 323 320 319 319 318 317 317 317 318
322 326 328 329 330 329 327 326 324 325 322 321 322 323 324 324 323 325 326 326 326 327 326 322 319 316 316 317 316 317 317 318
321 326 328 329 329 328 327 325 325 324 323 321 321 322 322 323 324 325 326 325 326 326 325 322 316 311 314 315 315 317 318 317
321 326 327 328 329 327 326 325 323 322 322 322 321 321 322 322 323 324 326 325 324 322 324 323 315 310 313 314 314 316 318 318
318 323 327 328 328 325 325 324 323 322 322 321 323 322 322 322 322 323 324 324 322 322 322 321 314 312 313 314 316 317 317 318
316 324 325 326 327 323 323 323 323 323 322 321 322 322 322 322 322 321 322 323 322 322 322 320 316 312 310 310 316 319 318 318
318 323 325 325 326 323 322 324 323 323 321 321 321 323 322 322 322 321 319 322 322 324 323 322 319 314 313 313 313 318 319 314
313 321 325 324 325 324 323 323 322 322 322 323 323 321 323 322 322 320 319 321 322 323 322 322 320 318 317 319 315 316 318 318
313 321 324 324 324 323 323 323 322 321 321 321 321 320 322 321 320 320 321 321 321 322 322 320 320 320 321 321 317 316 320 319
323 323 324 324 324 323 322 321 321 321 320 320 320 321 322 323 322 322 322 321 321 321 321 321 319 319 320 321 321 321 320 320
324 323 322 322 322 322 322 321 320 320 321 320 320 320 321 322 322 322 322 322 321 320 320 320 320 320 318 319 320 319 319 320
316 318 322 322 322 322 322 322 322 321 321 320 320 321 322 322 321 320 321 321 321 321 321 319 319 318 319 318 319 319 320 319
311 311 312 313 314 315 316 316 322 322 322 322 321 322 322 322 322 320 320 320 321 321 321 321 320 319 319 318 318 318 319 319
306 305 306 307 307 308 308 309 314 322 322 322 321 322 322 322 322 322 321 320 320 321 321 321 321 320 320 319 318 318 318 318
304 302 302 302 301 302 302 302 303 307 309 309 311 314 320 320 322 321 321 321 321 321 321 321 321 321 320 320 319 318 317 317
302 300 299 299 299 298 298 299 298 299 300 300 302 304 305 307 310 315 315 316 321 322 322 321 321 321 321 320 320 319 318 317
299 297 296 295 297 297 297 296 296 295 294 294 294 297 298 300 302 302 304 307 310 311 314 318 320 321 320 321 321 320 318 318

GFSFLT1_925_thetae_096.txt.gz
Theta_e
320 320 319 323 327 332 336 337 335 333 333 331 331 332 330 331 331 330 330 327 326 327 327 327 327 325 323 324 325 325 326 325
320 320 320 319 323 329 334 337 335 332 331 330 330 330 329 329 330 328 330 328 327 327 327 327 325 323 324 324 325 326 325 325
321 320 320 321 323 328 332 336 333 333 332 332 331 329 329 330 329 328 329 327 326 326 326 326 324 323 323 323 325 325 324 324
319 320 320 322 326 328 331 335 331 332 333 331 330 329 327 328 328 327 327 327 324 324 324 324 323 322 322 323 324 324 324 324
322 321 320 320 326 328 331 334 328 331 331 331 330 328 327 326 326 327 327 325 325 323 323 323 323 323 323 322 324 324 324 324
325 323 320 319 325 330 331 331 328 329 330 331 329 329 326 326 327 328 326 325 325 324 325 324 323 322 321 323 323 324 324 324
325 326 322 320 325 330 332 328 327 328 329 330 329 328 325 326 326 327 325 325 325 325 325 325 323 321 321 321 321 321 321 322
325 326 327 322 327 331 331 327 327 327 328 328 327 327 325 326 325 326 324 324 323 323 324 324 323 321 320 320 320 319 320 321
323 324 327 325 327 331 330 328 328 327 327 326 326 326 323 326 325 325 325 323 323 323 322 322 324 322 320 320 321 319 319 319
320 320 328 328 326 331 329 328 329 326 326 326 324 324 324 325 326 325 325 324 323 322 322 321 322 321 318 317 317 318 316 317
315 314 328 325 326 330 328 327 327 325 325 325 324 323 323 325 326 325 324 325 322 322 322 321 320 319 319 316 313 313 314 316
310 310 319 326 328 330 327 326 325 324 325 324 323 323 323 324 325 324 323 322 322 322 321 320 319 318 318 316 314 314 315 315
307 307 311 323 327 325 325 325 324 324 323 323 323 322 322 323 324 324 323 321 321 321 321 321 320 319 318 315 313 314 315 316
303 304 305 308 310 321 324 324 324 326 324 324 323 322 322 323 322 325 324 324 324 323 324 322 321 320 319 317 317 317 318 318
301 300 302 302 304 305 307 316 322 322 322 323 322 321 321 322 324 324 323 323 324 324 324 324 324 323 323 323 323 323 322 320
299 298 298 301 300 301 301 302 305 315 317 317 320 321 322 322 324 324 322 320 321 322 322 322 322 323 322 322 322 321 320 320
299 296 295 299 298 298 298 297 298 299 301 300 302 306 315 316 320 322 323 322 322 322 322 322 322 319 320 320 321 321 321 321
295 294 293 296 297 295 295 295 295 295 296 296 297 298 299 302 305 309 310 310 313 315 315 316 313 306 308 316 319 319 320 321
293 292 292 292 294 295 293 293 292 293 293 293 294 295 295 297 297 299 301 302 301 300 299 298 298 297 301 305 311 315 315 315

GFSFLT1_925_thetae_099.txt.gz
Theta_e
320 320 320 322 324 327 333 339 341 339 337 337 334 334 333 334 334 332 331 332 331 332 330 331 330 328 327 327 328 327 326 326
322 321 320 321 322 326 332 337 340 339 336 335 334 335 332 334 333 332 331 331 330 330 328 329 328 327 326 326 326 326 326 326
323 322 322 321 321 322 327 334 339 339 335 335 334 334 333 333 332 331 331 330 331 329 328 327 326 326 325 325 326 326 326 325
322 322 322 322 322 324 324 330 336 338 336 335 335 334 332 332 332 332 330 331 329 328 326 327 325 325 324 324 325 326 327 325
325 324 324 323 322 323 326 328 333 337 336 335 335 333 332 331 331 329 330 327 326 326 325 326 324 324 324 324 325 325 325 325
326 326 326 324 322 322 327 329 333 335 336 336 335 334 332 330 328 328 328 327 326 324 324 325 324 323 324 324 326 325 325 325
325 325 325 326 323 322 328 331 336 334 334 336 335 334 332 329 327 329 329 325 324 324 323 323 323 323 324 324 325 325 326 325
323 324 325 326 328 322 328 333 335 332 332 334 335 334 331 328 328 329 327 325 323 323 324 323 323 323 324 324 324 325 325 324
321 321 323 325 328 325 329 334 332 329 330 334 334 333 330 328 327 328 327 325 324 324 324 324 323 324 323 323 324 324 323 323
319 319 318 323 323 328 330 333 329 329 329 333 333 332 329 327 327 327 326 325 324 323 323 323 323 323 323 322 321 322 322 323
315 314 312 315 318 327 332 330 330 328 329 330 331 331 327 327 327 326 327 327 324 323 322 321 321 321 321 320 320 320 320 320
311 307 305 308 312 328 333 329 329 328 328 327 328 329 327 326 327 327 326 326 324 323 322 321 320 320 320 320 319 318 318 319
306 301 302 303 304 316 329 328 327 326 326 326 325 326 326 326 326 326 325 326 325 324 321 321 320 319 319 318 318 315 315 315
303 300 299 301 301 303 311 326 325 325 326 325 324 324 324 325 326 326 325 324 324 325 324 321 319 319 318 317 318 318 317 316
304 299 298 299 299 299 301 305 318 324 324 325 325 324 324 323 324 326 325 324 325 324 325 324 322 321 319 317 317 317 318 319
300 299 297 296 296 296 297 298 301 307 309 313 319 323 323 323 323 326 325 325 325 325 325 325 325 325 319 320 320 320 322 321
297 296 296 295 295 295 294 296 297 298 299 300 303 310 313 315 318 321 322 322 323 322 323 322 321 315 317 321 322 323 323 322
295 294 292 293 292 293 292 293 294 295 296 296 297 299 301 303 306 310 310 312 313 311 311 311 308 306 310 318 321 321 321 321
295 292 291 291 292 292 292 292 292 292 292 293 294 295 296 298 299 299 299 299 299 298 297 296 296 297 302 308 312 313 311 310

GFSFLT1_925_thetae_102.txt.gz
Theta_e
322 320 320 320 321 323 342 344 342 338 338 341 339 339 336 335 335 334 333 333 333 333 333 332 330 331 330 331 329 327 327 327
322 321 320 321 321 324 341 345 344 340 338 338 337 337 335 333 334 335 334 332 332 332 332 330 330 331 330 329 328 328 328 327
324 324 322 321 322 323 326 342 344 341 338 337 335 334 333 332 333 334 332 332 332 331 330 329 329 330 329 329 328 327 327 326
324 325 324 325 326 326 323 331 343 342 338 336 335 334 334 332 334 333 334 331 330 331 330 329 328 329 327 327 327 326 326 325
325 326 326 325 324 324 325 324 332 342 338 335 336 335 335 333 333 332 333 332 331 330 328 327 327 327 326 326 326 326 325 325
326 326 326 326 326 326 325 325 325 340 337 336 336 336 335 333 332 332 331 330 329 327 326 326 326 325 326 325 326 326 326 325
324 323 323 324 325 326 329 328 328 339 338 337 337 337 335 333 332 331 329 328 326 327 326 323 324 325 325 325 324 325 326 325
321 320 320 321 322 325 328 329 330 339 338 337 338 337 336 333 330 330 329 326 325 324 324 323 324 324 324 324 325 324 324 325
318 317 317 315 318 319 324 324 331 337 336 337 337 336 336 333 329 330 328 325 323 324 324 322 323 323 323 325 326 325 325 324
315 312 309 308 312 313 316 318 331 334 333 333 336 336 335 331 329 330 328 325 323 325 324 323 323 324 324 324 325 325 325 324
311 307 304 304 305 307 314 325 333 330 330 330 333 335 334 330 328 329 328 325 324 325 324 323 323 324 324 324 324 324 324 324
307 303 301 301 301 303 307 329 331 330 329 329 330 333 331 329 328 328 327 326 324 323 323 322 322 323 323 323 323 323 323 323
303 301 299 299 298 299 301 305 329 329 329 329 329 330 328 328 328 328 327 327 324 323 322 322 321 321 322 321 321 321 322 321
301 300 298 298 297 297 298 300 303 325 327 327 328 326 327 327 327 327 326 326 324 323 323 321 320 319 320 320 320 320 321 320
299 298 298 297 296 295 295 297 298 304 325 326 325 325 325 325 326 326 326 326 326 325 323 322 321 320 319 319 319 319 318 317
298 297 296 296 295 294 294 294 296 297 301 307 310 321 324 325 325 326 325 324 323 323 324 322 321 320 318 318 318 318 318 318
296 295 295 294 294 294 293 293 294 294 296 297 299 304 309 316 321 323 324 323 323 322 319 319 314 312 315 319 319 318 318 319
295 293 293 292 292 291 292 292 292 293 293 294 295 297 298 300 303 305 311 314 314 310 305 307 304 303 308 314 318 318 319 319
296 292 291 291 290 291 291 291 291 291 292 292 293 293 295 294 295 294 294 297 298 297 296 296 298 298 303 309 312 314 313 309

GFSFLT1_925_thetae_105.txt.gz
Theta_e
318 318 318 318 318 338 342 343 342 341 341 343 342 340 337 338 338 334 334 334 335 336 334 333 333 331 331 331 330 329 328 326
318 319 318 319 319 341 343 343 341 340 340 342 339 337 336 336 336 336 335 333 333 333 333 333 333 331 330 330 329 328 327 326
318 319 318 318 320 335 343 342 341 340 338 340 340 338 336 335 335 335 335 333 332 332 332 332 332 331 330 330 329 328 326 327
319 320 321 324 324 328 343 342 341 340 338 338 338 336 335 334 333 333 334 333 332 331 331 332 331 330 329 330 329 328 326 326
322 321 320 321 322 324 326 343 341 339 338 336 335 334 334 333 331 331 332 333 331 332 331 330 329 329 329 329 329 327 326 326
319 318 318 318 318 320 322 324 336 341 338 337 335 333 333 333 332 332 332 333 332 331 331 329 327 329 328 328 328 327 326 326
314 314 313 312 312 314 316 318 322 332 339 337 335 334 333 333 332 332 332 332 331 330 329 326 326 326 326 327 327 326 326 325
311 310 308 307 307 309 311 311 316 319 336 336 336 335 335 333 332 331 330 330 328 326 325 323 325 326 325 325 326 326 325 325
307 305 304 304 305 305 305 307 310 314 329 336 336 335 335 333 332 331 329 327 326 325 324 324 323 322 324 324 325 325 325 325
304 302 301 302 302 302 302 304 306 315 322 336 336 337 335 334 332 331 329 327 327 324 324 323 321 323 324 324 324 325 325 324
302 300 300 300 300 299 300 303 309 324 330 336 336 336 335 335 330 329 329 327 325 323 323 323 322 323 323 324 325 325 324 324
301 300 299 299 298 298 298 300 305 322 333 334 333 334 334 332 329 329 329 327 324 323 323 322 322 323 323 323 323 323 323 323
299 298 298 298 297 297 297 298 300 306 322 329 329 331 332 330 329 329 328 326 324 322 323 323 322 323 323 323 324 324 324 324
298 297 297 296 296 296 296 296 297 300 308 327 328 330 328 328 328 328 327 326 324 323 323 322 322 322 323 323 323 323 322 323
297 296 295 295 295 295 295 295 295 296 299 305 314 325 327 328 328 327 328 327 325 323 322 321 320 321 322 322 321 322 322 322
296 295 294 293 293 293 294 294 294 295 296 297 300 307 320 325 326 326 326 326 325 323 322 320 320 319 319 319 320 319 320 320
294 293 293 292 292 291 291 292 293 293 294 295 296 298 304 308 313 320 319 322 323 323 319 317 318 316 317 318 318 318 319 318
293 292 292 291 290 290 290 290 291 293 292 292 294 295 295 296 298 303 300 300 303 305 304 304 303 307 313 317 318 317 317 317
292 291 291 291 290 289 289 289 289 290 292 291 290 293 293 293 293 292 294 292 292 292 294 295 298 299 306 310 313 312 309 305

GFSFLT1_925_thetae_108.txt.gz
Theta_e
313 317 318 318 315 335 341 343 343 341 341 341 341 340 339 338 338 338 336 337 335 335 334 333 333 331 331 331 331 330 329 329
315 317 317 316 315 324 340 341 341 341 341 340 339 338 338 337 335 336 335 335 337 335 334 334 333 332 331 331 330 327 326 327
315 316 315 316 314 329 337 340 340 340 341 340 339 337 337 337 337 338 336 333 334 336 335 334 333 332 332 331 329 327 326 326
320 318 317 319 321 333 340 340 339 339 339 340 339 337 336 335 336 336 336 334 334 333 334 334 334 333 332 330 329 327 327 326
315 314 312 312 314 317 327 340 338 338 337 338 337 336 335 335 334 334 335 335 335 333 332 332 332 332 331 330 329 328 327 325
310 308 307 307 308 310 313 319 327 335 336 336 337 336 335 334 333 333 333 333 333 333 332 331 330 331 329 328 327 327 327 326
305 304 304 304 305 305 308 311 314 317 327 335 335 335 333 332 332 331 331 331 330 332 331 331 331 329 328 327 326 326 327 327
302 301 301 302 302 302 304 304 307 314 316 326 334 333 332 333 331 331 330 330 330 331 331 331 329 328 328 326 326 327 327 326
300 300 300 300 300 300 300 302 304 306 315 319 331 334 332 332 331 331 330 330 330 330 330 329 327 326 326 325 326 326 327 326
300 299 299 299 299 299 299 300 301 304 309 318 323 333 332 333 332 332 331 330 330 330 329 327 324 323 322 323 324 325 325 326
299 299 298 298 298 298 298 299 299 302 308 319 320 333 333 333 332 331 331 330 329 328 328 325 323 321 322 322 323 324 325 325
299 298 297 296 296 297 297 298 298 300 304 320 331 333 332 333 332 331 330 329 329 327 325 323 322 322 321 322 323 324 324 324
297 296 296 296 295 295 296 296 297 298 301 311 327 329 331 330 330 329 328 328 327 326 324 323 322 320 321 322 322 324 324 324
296 295 295 294 294 294 293 295 295 297 299 302 310 318 327 329 328 327 327 327 326 324 323 322 322 321 322 321 322 323 323 323
295 294 294 293 293 293 293 292 294 295 296 297 298 302 310 323 327 327 327 326 325 323 323 322 322 321 322 322 322 323 323 323
294 294 293 292 292 291 291 292 292 293 294 294 295 297 301 308 318 326 325 324 324 323 323 322 321 321 321 321 321 322 321 322
292 293 292 292 291 290 290 290 290 291 293 293 293 294 295 296 298 303 318 321 321 322 320 318 318 318 319 320 320 320 321 321
291 291 291 290 290 290 289 289 290 290 289 291 292 292 292 292 293 293 296 301 307 307 307 307 307 308 314 318 318 318 318 317
289 289 290 289 289 289 288 287 288 288 288 288 289 291 291 291 292 290 291 290 290 294 296 299 300 299 305 308 312 314 311 308

GFSFLT1_925_thetae_111.txt.gz
Theta_e
312 315 321 331 340 342 343 343 343 342 341 341 341 340 338 337 337 337 337 336 335 334 334 334 333 332 331 330 330 328 327 328
312 313 312 312 318 339 341 342 342 341 340 339 339 340 339 339 338 337 337 336 335 335 334 334 333 332 331 331 329 329 329 327
318 316 317 317 318 313 334 340 341 341 340 339 338 339 337 338 337 337 337 336 335 335 335 334 334 332 331 330 329 328 327 326
314 311 309 309 310 315 332 338 339 339 339 338 338 337 336 335 337 337 337 337 335 336 335 334 334 332 331 330 330 327 327 326
308 307 306 306 306 310 317 336 338 339 339 338 337 336 336 335 334 334 334 336 335 334 336 335 333 332 331 330 329 329 328 327
304 304 304 303 304 305 308 315 324 332 338 339 337 336 336 336 335 334 335 336 336 334 333 334 334 333 331 331 329 329 328 327
301 301 301 301 301 302 304 307 311 316 324 334 336 335 335 335 334 333 333 334 335 335 333 333 332 331 330 331 329 328 328 327
300 299 299 300 299 299 301 302 306 311 314 319 329 335 335 334 333 333 331 331 332 332 331 332 332 331 330 329 328 327 327 327
300 299 298 298 298 298 299 300 302 306 309 313 317 329 334 333 332 332 331 330 331 330 331 330 331 330 329 329 327 326 326 326
299 298 297 297 297 298 298 299 300 303 307 310 313 317 330 333 332 331 331 331 330 329 329 329 330 330 329 327 326 325 326 326
298 297 297 296 296 296 297 297 299 300 303 309 312 316 320 333 332 331 330 330 330 330 329 329 329 329 327 325 324 324 325 324
297 296 296 295 295 295 294 295 297 298 300 304 310 322 322 332 331 330 331 330 330 329 329 329 329 327 326 322 321 321 322 323
295 295 294 294 294 294 294 293 295 296 297 300 303 310 320 330 330 329 330 329 329 328 328 328 328 326 323 321 322 322 323 323
295 294 294 293 293 292 293 293 293 294 295 297 298 300 307 314 319 328 328 327 327 325 326 326 325 322 322 321 321 322 322 323
294 293 293 292 292 291 291 291 292 292 294 294 295 296 298 302 307 317 325 326 325 325 325 323 322 322 321 321 320 321 321 323
293 292 292 291 291 290 290 290 290 291 291 292 293 294 295 298 301 306 313 322 324 324 324 322 321 321 321 322 321 321 322 322
291 291 290 290 290 289 288 288 289 289 290 290 291 292 292 295 294 296 298 299 307 316 321 320 321 320 320 321 321 321 322 322
289 290 290 289 289 287 287 286 287 287 287 289 289 290 291 291 293 294 294 293 293 294 297 303 305 308 315 319 319 319 320 320
288 288 288 288 287 287 285 285 285 285 285 286 287 288 289 289 289 290 292 293 292 291 291 291 294 295 301 309 315 315 313 311

GFSFLT1_925_thetae_114.txt.gz
Theta_e
311 312 318 335 338 339 340 340 339 337 336 336 336 335 334 333 333 333 333 336 337 336 336 335 334 334 333 332 331 328 328 326
314 314 312 320 331 339 340 340 341 339 338 337 336 337 337 336 335 334 333 334 335 335 335 334 334 333 333 332 332 328 326 327
312 309 308 311 313 317 337 341 340 339 339 339 337 337 337 336 336 336 335 335 334 335 334 333 333 332 332 332 330 328 328 327
309 307 304 305 306 311 320 335 341 340 339 338 337 337 336 336 336 336 336 336 336 335 334 333 333 332 330 329 329 329 328 327
304 303 302 301 302 307 316 332 338 338 339 338 337 337 336 336 336 335 335 336 336 335 334 335 333 333 331 330 330 330 328 326
300 300 301 300 300 302 308 315 326 331 337 338 337 336 336 336 335 334 335 336 335 336 335 333 333 332 331 331 330 329 328 328
300 299 299 299 299 301 302 307 311 319 326 333 336 336 336 334 334 334 334 334 334 334 334 335 333 332 331 330 330 330 329 328
300 299 299 299 299 299 300 302 304 309 313 317 325 332 335 335 334 333 333 332 332 335 334 334 333 332 332 331 330 329 329 328
300 298 297 297 297 297 298 299 301 304 309 311 313 321 328 333 334 333 332 332 332 333 334 332 333 331 331 331 330 329 329 328
299 298 297 296 296 296 296 297 299 300 302 307 312 315 318 326 332 333 332 332 332 332 332 332 331 330 331 330 329 329 328 327
297 296 295 295 295 295 295 295 297 298 299 302 305 311 317 319 325 331 332 331 331 331 330 330 329 330 329 329 328 327 327 326
296 295 294 294 294 293 293 293 294 296 297 299 302 305 313 319 319 330 330 330 330 330 330 329 327 329 328 328 327 327 326 324
293 293 293 293 292 292 292 292 293 293 295 296 298 301 305 311 319 321 330 330 329 329 328 327 326 326 327 327 326 325 323 322
293 292 292 292 291 291 291 291 291 292 292 294 295 296 298 300 306 313 322 326 328 327 325 326 325 325 325 326 325 323 321 321
292 291 291 290 289 290 289 289 290 290 291 292 293 293 294 295 299 304 312 319 321 325 325 325 325 324 324 325 324 322 321 321
291 291 290 290 288 288 288 288 288 289 289 290 291 291 292 293 294 297 302 308 311 315 321 323 324 323 322 322 322 321 320 321
290 290 289 288 288 286 286 286 286 287 288 288 289 290 290 290 291 292 294 298 301 301 303 308 305 309 313 321 321 321 320 321
288 288 287 287 287 284 284 284 285 285 286 286 287 288 289 289 289 289 290 291 294 296 296 297 294 294 301 314 314 321 321 320
286 286 286 285 286 284 283 283 283 283 283 284 284 286 287 287 287 287 288 288 289 290 291 292 296 293 293 299 303 309 314 313

GFSFLT1_925_thetae_117.txt.gz
Theta_e
305 308 311 311 314 329 337 337 335 334 334 334 334 333 333 334 334 334 334 335 336 337 337 337 335 333 331 333 330 330 330 331
305 312 313 312 315 329 338 339 337 335 334 334 334 333 333 333 334 334 333 334 335 337 336 336 335 333 331 334 330 329 329 330
307 311 309 309 311 317 338 340 339 336 335 335 335 334 334 333 333 334 333 332 333 335 336 335 335 332 331 329 330 328 328 328
310 308 306 306 307 310 318 339 340 338 338 337 336 335 335 335 334 334 334 332 332 333 335 334 334 334 330 329 329 329 328 327
304 304 304 303 304 306 312 327 338 339 338 338 337 337 336 336 335 334 335 334 333 333 333 334 333 333 332 331 328 329 329 328
303 302 302 302 302 304 307 313 323 333 338 338 337 337 337 336 336 335 334 335 333 334 334 334 333 332 331 331 330 330 330 330
301 300 300 300 300 302 304 308 309 319 327 332 336 337 337 336 336 335 335 334 335 334 334 334 333 332 332 331 330 330 330 329
301 300 299 298 298 299 301 304 305 307 313 320 325 331 334 335 335 335 334 333 333 334 334 333 333 333 332 331 330 330 329 329
300 299 297 297 297 297 297 300 302 303 306 309 314 320 323 328 334 334 335 333 333 333 332 333 333 332 332 330 331 330 330 329
297 298 296 296 296 295 296 297 298 299 302 304 307 311 316 318 324 330 333 333 332 333 332 332 331 331 331 330 331 330 330 330
296 295 295 294 294 294 294 294 295 297 298 300 302 304 310 315 318 322 328 331 332 331 331 331 330 330 330 329 331 330 329 329
293 294 293 293 292 292 292 293 294 294 295 297 298 300 303 308 312 316 320 329 330 330 330 330 331 329 330 328 328 329 328 327
292 292 291 291 291 291 291 291 292 292 293 294 295 296 298 300 303 310 317 325 328 330 329 329 328 328 328 328 327 326 327 326
291 291 291 289 289 289 289 289 290 291 292 292 293 293 294 295 298 301 308 316 323 326 327 327 327 327 326 326 325 326 326 326
290 290 289 288 287 287 287 288 289 290 291 290 291 291 292 292 294 296 299 303 311 314 320 323 325 325 325 325 325 324 324 325
289 288 288 287 286 286 286 286 287 288 288 289 289 290 290 291 291 292 293 295 298 302 306 308 310 311 309 315 320 322 322 322
288 288 287 287 286 285 284 285 286 286 287 287 288 289 289 289 289 289 290 291 292 295 295 297 299 299 301 307 316 319 321 321
287 286 285 286 286 284 284 284 285 285 285 285 286 287 287 288 288 288 288 288 289 289 290 290 291 293 296 302 310 312 313 317
285 284 284 284 286 284 283 283 283 283 283 283 283 285 287 287 287 287 287 287 286 286 287 287 287 289 292 296 303 302 301 296

GFSFLT1_925_thetae_123.txt.gz
Theta_e
312 311 310 309 309 309 309 311 314 317 339 339 338 338 338 337 337 339 340 339 339 339 340 339 339 339 337 338 338 338 337 335
309 311 311 310 308 308 309 310 314 318 333 339 339 339 337 337 336 337 341 339 339 339 338 338 338 339 337 336 337 338 337 336
306 306 310 312 314 314 314 315 316 318 320 338 338 338 336 336 335 337 340 339 338 338 338 337 337 337 337 336 336 336 337 336
303 303 303 306 308 309 313 314 314 317 321 337 338 338 336 336 335 337 339 340 337 337 337 337 336 336 336 336 335 335 336 336
299 300 300 301 302 303 305 308 313 317 322 330 338 338 337 336 335 336 338 339 338 336 337 337 335 335 335 335 335 335 335 333
297 297 296 298 299 299 300 304 312 314 318 326 338 337 338 336 336 336 337 339 338 337 336 336 335 334 334 335 334 335 334 334
297 295 294 296 297 298 298 303 308 309 315 331 338 337 339 337 338 339 339 338 337 338 336 335 335 334 334 334 333 333 334 334
295 293 293 293 295 296 298 301 304 306 312 317 325 336 337 339 340 340 339 337 336 338 338 338 335 335 334 334 333 333 332 333
293 292 292 291 293 294 297 300 302 304 308 311 313 317 327 326 326 325 336 336 336 336 336 338 338 336 334 334 334 333 333 333
292 291 291 290 291 292 295 298 299 300 302 306 308 310 314 321 320 323 326 328 334 336 336 336 337 335 335 334 334 335 334 334
292 290 290 290 290 291 294 296 297 297 299 302 303 304 305 309 314 314 315 321 326 333 336 335 335 335 335 334 334 335 335 335
291 290 289 289 289 290 292 295 296 296 296 296 297 299 300 301 303 305 307 311 317 324 330 333 333 333 332 333 333 333 334 334
291 290 289 288 288 290 291 291 294 295 295 295 296 296 296 296 296 298 300 302 304 310 319 327 328 331 331 330 331 330 331 332
291 289 289 289 288 288 290 292 292 292 295 295 294 294 293 293 294 294 295 296 298 300 304 306 308 311 318 319 320 327 330 330
291 290 289 289 288 288 289 290 291 292 293 294 293 292 293 293 292 292 292 293 293 295 295 296 297 298 302 307 312 318 322 324
290 290 289 288 289 289 289 289 290 291 291 292 293 294 292 292 291 290 290 291 291 291 292 292 292 293 294 297 304 306 308 312
289 288 287 288 288 288 288 288 288 289 289 290 292 292 292 291 290 290 289 289 289 289 289 289 289 289 292 294 296 298 299 299
289 288 287 287 287 288 287 288 287 287 287 288 289 290 290 291 291 290 289 288 288 287 287 287 287 286 289 291 292 293 292 292
290 288 287 287 287 287 287 286 287 286 286 286 287 288 288 289 289 289 289 288 288 287 287 286 286 285 286 288 289 289 289 289

GFSFLT1_925_thetae_126.txt.gz
Theta_e
306 305 306 306 308 311 313 314 312 311 311 317 337 338 337 341 340 340 341 341 343 340 342 342 340 340 337 337 337 337 337 336
304 303 302 303 304 306 309 310 313 315 311 320 335 338 336 339 340 341 341 340 340 339 340 342 341 341 340 338 338 338 338 337
302 301 299 300 301 302 304 305 307 309 314 317 322 333 336 337 340 339 342 340 340 339 339 338 339 339 339 337 337 339 338 337
300 299 298 298 298 299 300 301 302 305 308 314 316 318 333 335 338 338 342 341 341 340 338 337 337 337 337 335 335 336 338 336
299 298 297 296 296 297 298 299 300 302 306 310 316 318 321 334 337 337 341 342 340 340 337 337 336 336 335 336 334 335 335 337
297 295 294 294 294 295 295 297 298 301 304 310 312 314 318 323 336 337 339 342 340 339 336 337 336 335 335 335 334 335 334 336
295 293 292 292 292 292 293 294 298 300 304 307 312 316 319 321 335 336 339 342 339 338 335 337 336 334 334 334 334 334 333 335
294 292 291 291 291 291 291 293 297 300 302 307 313 317 323 329 334 336 338 341 340 337 336 336 336 334 334 333 334 333 333 334
293 291 291 290 290 290 290 292 295 299 301 306 310 315 318 324 326 326 337 339 339 339 336 335 335 335 334 333 333 334 333 333
292 291 290 289 289 289 289 291 295 298 299 302 304 307 312 313 317 322 319 327 330 336 336 338 336 335 334 333 333 333 333 333
292 290 290 289 289 289 290 292 293 295 298 298 299 300 302 305 313 315 314 318 325 318 330 334 334 336 336 334 334 334 333 332
291 290 289 290 289 289 290 291 292 293 294 295 295 296 297 299 302 302 310 312 312 319 318 322 327 330 332 334 335 334 334 335
291 290 289 289 289 289 289 291 292 292 294 293 294 294 294 294 296 297 297 303 309 306 309 309 310 315 319 323 324 330 333 334
290 290 289 289 289 289 289 289 291 293 293 293 292 292 292 292 292 293 295 297 297 300 299 298 299 302 306 309 314 316 321 323
290 289 288 289 289 289 289 288 289 290 292 292 292 291 291 291 291 291 291 292 292 293 294 293 293 295 299 302 303 305 308 311
290 289 288 288 289 288 289 288 288 289 290 291 291 291 292 291 291 290 289 290 290 289 289 290 289 290 291 295 296 298 300 302
290 289 289 288 288 288 288 288 287 287 288 289 290 290 290 290 290 290 289 288 288 288 287 287 287 287 289 291 293 292 293 292
290 289 289 289 288 288 288 288 287 286 287 287 288 288 289 289 289 289 289 288 287 287 287 287 286 286 289 288 289 288 288 287
291 290 289 289 288 288 288 288 287 287 286 286 287 287 288 288 288 288 288 288 287 286 286 286 285 285 286 288 289 288 287 286